Time,TemperatureF,DewpointF,PressureIn,WindDirection,WindDirectionDegrees,WindSpeedMPH,WindSpeedGustMPH,Humidity,HourlyPrecipIn,Conditions,Clouds,dailyrainin,SoftwareType,DateUTC
2013-03-08 00:00:00,25.6,23.3,30.42,ESE,105,0.0,0.0,91,0.00,,,0.00,Wunderground v.1.15,2013-03-08 06:00:00,
2013-03-08 00:02:00,25.7,23.4,30.42,ENE,70,0.0,0.0,91,0.00,,,0.00,Wunderground v.1.15,2013-03-08 06:02:00,
2013-03-08 00:03:00,25.8,23.5,30.42,East,85,0.0,0.0,91,0.00,,,0.00,Wunderground v.1.15,2013-03-08 06:03:00,
2013-03-08 00:08:00,26.2,23.7,30.42,East,100,0.0,0.0,90,0.00,,,0.00,Wunderground v.1.15,2013-03-08 06:08:00,
2013-03-08 00:09:00,26.2,23.7,30.42,ESE,105,0.0,0.0,90,0.00,,,0.00,Wunderground v.1.15,2013-03-08 06:09:00,
2013-03-08 00:10:00,26.3,23.8,30.42,East,87,0.0,0.0,90,0.00,,,0.00,Wunderground v.1.15,2013-03-08 06:10:00,
2013-03-08 00:12:00,26.3,23.8,30.42,East,94,0.0,0.0,90,0.00,,,0.00,Wunderground v.1.15,2013-03-08 06:12:00,
2013-03-08 00:15:00,26.4,23.9,30.43,East,98,0.0,0.0,90,0.00,,,0.00,Wunderground v.1.15,2013-03-08 06:15:00,
2013-03-08 00:16:00,26.3,23.8,30.43,East,101,0.0,0.0,90,0.00,,,0.00,Wunderground v.1.15,2013-03-08 06:16:00,
2013-03-08 00:17:00,26.3,23.8,30.43,ESE,120,0.0,0.0,90,0.00,,,0.00,Wunderground v.1.15,2013-03-08 06:17:00,
2013-03-08 00:19:00,26.2,23.4,30.43,ESE,120,0.0,0.0,89,0.00,,,0.00,Wunderground v.1.15,2013-03-08 06:19:00,
2013-03-08 00:20:00,26.2,23.4,30.43,ESE,120,0.0,0.0,89,0.00,,,0.00,Wunderground v.1.15,2013-03-08 06:20:00,
2013-03-08 00:24:00,26.1,23.3,30.43,ESE,120,0.0,0.0,89,0.00,,,0.00,Wunderground v.1.15,2013-03-08 06:24:00,
2013-03-08 00:25:00,26.1,23.3,30.43,ESE,120,0.0,0.0,89,0.00,,,0.00,Wunderground v.1.15,2013-03-08 06:25:00,
2013-03-08 00:27:00,26.0,23.2,30.43,ESE,108,0.0,0.0,89,0.00,,,0.00,Wunderground v.1.15,2013-03-08 06:27:00,
2013-03-08 00:29:00,25.9,23.1,30.43,ESE,109,0.0,0.0,89,0.00,,,0.00,Wunderground v.1.15,2013-03-08 06:29:00,
2013-03-08 00:30:00,25.8,23.0,30.43,ESE,108,0.0,0.0,89,0.00,,,0.00,Wunderground v.1.15,2013-03-08 06:30:00,
2013-03-08 00:32:00,25.8,23.0,30.43,ESE,109,0.0,0.0,89,0.00,,,0.00,Wunderground v.1.15,2013-03-08 06:32:00,
2013-03-08 00:33:00,25.7,22.9,30.43,ESE,108,0.0,0.0,89,0.00,,,0.00,Wunderground v.1.15,2013-03-08 06:33:00,
2013-03-08 00:35:00,25.7,23.2,30.43,East,94,0.0,0.0,90,0.00,,,0.00,Wunderground v.1.15,2013-03-08 06:35:00,
2013-03-08 00:37:00,25.6,23.1,30.44,East,94,0.0,0.0,90,0.00,,,0.00,Wunderground v.1.15,2013-03-08 06:37:00,
2013-03-08 00:38:00,25.7,23.2,30.44,East,94,0.0,0.0,90,0.00,,,0.00,Wunderground v.1.15,2013-03-08 06:38:00,
2013-03-08 00:39:00,25.6,23.1,30.44,East,94,0.0,0.0,90,0.00,,,0.00,Wunderground v.1.15,2013-03-08 06:39:00,
2013-03-08 00:42:00,25.6,23.1,30.44,East,94,0.0,0.0,90,0.00,,,0.00,Wunderground v.1.15,2013-03-08 06:42:00,
2013-03-08 00:43:00,25.6,23.1,30.44,East,94,0.0,0.0,90,0.00,,,0.00,Wunderground v.1.15,2013-03-08 06:43:00,
2013-03-08 00:45:00,25.5,23.0,30.44,East,94,0.0,0.0,90,0.00,,,0.00,Wunderground v.1.15,2013-03-08 06:45:00,
2013-03-08 00:46:00,25.4,22.9,30.44,East,94,0.0,0.0,90,0.00,,,0.00,Wunderground v.1.15,2013-03-08 06:46:00,
2013-03-08 00:47:00,25.3,22.8,30.44,East,94,0.0,0.0,90,0.00,,,0.00,Wunderground v.1.15,2013-03-08 06:47:00,
2013-03-08 00:50:00,25.1,22.6,30.44,East,94,0.0,0.0,90,0.00,,,0.00,Wunderground v.1.15,2013-03-08 06:50:00,
2013-03-08 00:52:00,24.9,22.4,30.44,East,94,0.0,0.0,90,0.00,,,0.00,Wunderground v.1.15,2013-03-08 06:52:00,
2013-03-08 00:55:00,24.7,22.2,30.44,East,93,0.0,0.0,90,0.00,,,0.00,Wunderground v.1.15,2013-03-08 06:55:00,
2013-03-08 00:57:00,24.4,21.9,30.44,East,94,0.0,0.0,90,0.00,,,0.00,Wunderground v.1.15,2013-03-08 06:57:00,
2013-03-08 01:00:00,24.3,21.8,30.44,ENE,67,0.0,0.0,90,0.00,,,0.00,Wunderground v.1.15,2013-03-08 07:00:00,
2013-03-08 01:01:00,24.3,21.8,30.44,ENE,67,0.0,0.0,90,0.00,,,0.00,Wunderground v.1.15,2013-03-08 07:01:00,
2013-03-08 01:04:00,24.3,21.8,30.44,East,91,0.0,0.0,90,0.00,,,0.00,Wunderground v.1.15,2013-03-08 07:04:00,
2013-03-08 01:05:00,24.3,21.8,30.44,East,98,0.0,0.0,90,0.00,,,0.00,Wunderground v.1.15,2013-03-08 07:05:00,
2013-03-08 01:09:00,24.5,22.2,30.44,East,85,0.0,0.0,91,0.00,,,0.00,Wunderground v.1.15,2013-03-08 07:09:00,
2013-03-08 01:11:00,24.7,22.4,30.44,East,94,0.0,0.0,91,0.00,,,0.00,Wunderground v.1.15,2013-03-08 07:11:00,
2013-03-08 01:15:00,24.8,22.5,30.44,ENE,68,0.0,0.0,91,0.00,,,0.00,Wunderground v.1.15,2013-03-08 07:15:00,
2013-03-08 01:16:00,24.8,22.5,30.44,ESE,103,0.0,0.0,91,0.00,,,0.00,Wunderground v.1.15,2013-03-08 07:16:00,
2013-03-08 01:18:00,24.8,22.5,30.44,ESE,108,0.0,0.0,91,0.00,,,0.00,Wunderground v.1.15,2013-03-08 07:18:00,
2013-03-08 01:21:00,24.9,22.6,30.43,ENE,72,0.0,0.0,91,0.00,,,0.00,Wunderground v.1.15,2013-03-08 07:21:00,
2013-03-08 01:22:00,24.9,22.6,30.43,ENE,74,0.0,0.0,91,0.00,,,0.00,Wunderground v.1.15,2013-03-08 07:22:00,
2013-03-08 01:23:00,25.0,22.7,30.43,ENE,71,0.0,0.0,91,0.00,,,0.00,Wunderground v.1.15,2013-03-08 07:23:00,
2013-03-08 01:26:00,25.1,22.8,30.43,East,82,0.0,0.0,91,0.00,,,0.00,Wunderground v.1.15,2013-03-08 07:26:00,
2013-03-08 01:27:00,25.2,22.9,30.44,East,92,0.0,0.0,91,0.00,,,0.00,Wunderground v.1.15,2013-03-08 07:27:00,
2013-03-08 01:28:00,25.3,23.0,30.43,East,91,0.0,0.0,91,0.00,,,0.00,Wunderground v.1.15,2013-03-08 07:28:00,
2013-03-08 01:31:00,25.3,23.0,30.44,ENE,68,0.0,0.0,91,0.00,,,0.00,Wunderground v.1.15,2013-03-08 07:31:00,
2013-03-08 01:32:00,25.3,23.0,30.44,ESE,105,0.0,0.0,91,0.00,,,0.00,Wunderground v.1.15,2013-03-08 07:32:00,
2013-03-08 01:35:00,25.3,23.0,30.44,East,94,0.0,0.0,91,0.00,,,0.00,Wunderground v.1.15,2013-03-08 07:35:00,
2013-03-08 01:36:00,25.4,23.1,30.44,ESE,115,0.0,0.0,91,0.00,,,0.00,Wunderground v.1.15,2013-03-08 07:36:00,
2013-03-08 01:37:00,25.4,23.1,30.44,East,86,0.0,0.0,91,0.00,,,0.00,Wunderground v.1.15,2013-03-08 07:37:00,
2013-03-08 01:39:00,25.5,23.2,30.44,East,98,0.0,0.0,91,0.00,,,0.00,Wunderground v.1.15,2013-03-08 07:39:00,
2013-03-08 01:40:00,25.5,23.2,30.44,East,85,0.0,0.0,91,0.00,,,0.00,Wunderground v.1.15,2013-03-08 07:40:00,
2013-03-08 01:44:00,25.5,23.2,30.44,ESE,116,0.0,0.0,91,0.00,,,0.00,Wunderground v.1.15,2013-03-08 07:44:00,
2013-03-08 01:46:00,25.6,23.3,30.44,ESE,115,0.0,0.0,91,0.00,,,0.00,Wunderground v.1.15,2013-03-08 07:46:00,
2013-03-08 01:49:00,25.5,23.2,30.44,ESE,113,0.0,0.0,91,0.00,,,0.00,Wunderground v.1.15,2013-03-08 07:49:00,
2013-03-08 01:51:00,25.5,23.2,30.44,East,94,0.0,0.0,91,0.00,,,0.00,Wunderground v.1.15,2013-03-08 07:51:00,
2013-03-08 01:53:00,25.5,23.0,30.44,East,94,0.0,0.0,90,0.00,,,0.00,Wunderground v.1.15,2013-03-08 07:53:00,
2013-03-08 01:54:00,25.5,23.0,30.44,East,94,0.0,0.0,90,0.00,,,0.00,Wunderground v.1.15,2013-03-08 07:54:00,
2013-03-08 01:57:00,25.4,22.9,30.44,East,94,0.0,0.0,90,0.00,,,0.00,Wunderground v.1.15,2013-03-08 07:57:00,
2013-03-08 02:00:00,25.3,22.8,30.44,East,94,0.0,0.0,90,0.00,,,0.00,Wunderground v.1.15,2013-03-08 08:00:00,
2013-03-08 02:01:00,25.3,22.8,30.44,East,94,0.0,0.0,90,0.00,,,0.00,Wunderground v.1.15,2013-03-08 08:01:00,
2013-03-08 02:02:00,25.3,22.8,30.44,East,94,0.0,0.0,90,0.00,,,0.00,Wunderground v.1.15,2013-03-08 08:02:00,
2013-03-08 02:05:00,25.1,22.6,30.44,East,93,0.0,0.0,90,0.00,,,0.00,Wunderground v.1.15,2013-03-08 08:05:00,
2013-03-08 02:08:00,25.0,22.5,30.44,East,94,0.0,0.0,90,0.00,,,0.00,Wunderground v.1.15,2013-03-08 08:08:00,
2013-03-08 02:09:00,24.9,22.4,30.44,East,94,0.0,0.0,90,0.00,,,0.00,Wunderground v.1.15,2013-03-08 08:09:00,
2013-03-08 02:10:00,24.8,22.3,30.44,East,93,0.0,0.0,90,0.00,,,0.00,Wunderground v.1.15,2013-03-08 08:10:00,
2013-03-08 02:13:00,24.5,22.0,30.44,East,94,0.0,0.0,90,0.00,,,0.00,Wunderground v.1.15,2013-03-08 08:13:00,
2013-03-08 02:14:00,24.5,22.0,30.44,East,94,0.0,0.0,90,0.00,,,0.00,Wunderground v.1.15,2013-03-08 08:14:00,
2013-03-08 02:15:00,24.3,21.8,30.44,East,94,0.0,0.0,90,0.00,,,0.00,Wunderground v.1.15,2013-03-08 08:15:00,
2013-03-08 02:19:00,24.1,21.6,30.44,East,94,0.0,0.0,90,0.00,,,0.00,Wunderground v.1.15,2013-03-08 08:19:00,
2013-03-08 02:22:00,23.9,21.4,30.44,East,94,0.0,0.0,90,0.00,,,0.00,Wunderground v.1.15,2013-03-08 08:22:00,
2013-03-08 02:23:00,23.8,21.3,30.44,East,94,0.0,0.0,90,0.00,,,0.00,Wunderground v.1.15,2013-03-08 08:23:00,
2013-03-08 02:25:00,23.6,21.1,30.44,East,93,0.0,0.0,90,0.00,,,0.00,Wunderground v.1.15,2013-03-08 08:25:00,
2013-03-08 02:26:00,23.6,21.1,30.44,East,93,0.0,0.0,90,0.00,,,0.00,Wunderground v.1.15,2013-03-08 08:26:00,
2013-03-08 02:29:00,23.3,20.8,30.44,East,94,0.0,0.0,90,0.00,,,0.00,Wunderground v.1.15,2013-03-08 08:29:00,
2013-03-08 02:31:00,23.2,20.7,30.44,East,94,0.0,0.0,90,0.00,,,0.00,Wunderground v.1.15,2013-03-08 08:31:00,
2013-03-08 02:32:00,23.2,20.7,30.44,East,94,0.0,0.0,90,0.00,,,0.00,Wunderground v.1.15,2013-03-08 08:32:00,
2013-03-08 02:36:00,23.2,21.0,30.44,East,94,0.0,0.0,91,0.00,,,0.00,Wunderground v.1.15,2013-03-08 08:36:00,
2013-03-08 02:39:00,23.0,20.8,30.44,East,94,0.0,0.0,91,0.00,,,0.00,Wunderground v.1.15,2013-03-08 08:39:00,
2013-03-08 02:40:00,22.9,20.7,30.44,East,94,0.0,0.0,91,0.00,,,0.00,Wunderground v.1.15,2013-03-08 08:40:00,
2013-03-08 02:43:00,22.7,20.5,30.43,East,94,0.0,0.0,91,0.00,,,0.00,Wunderground v.1.15,2013-03-08 08:43:00,
2013-03-08 02:44:00,22.6,20.4,30.43,East,93,0.0,0.0,91,0.00,,,0.00,Wunderground v.1.15,2013-03-08 08:44:00,
2013-03-08 02:45:00,22.5,20.3,30.43,East,93,0.0,0.0,91,0.00,,,0.00,Wunderground v.1.15,2013-03-08 08:45:00,
2013-03-08 02:48:00,22.4,20.2,30.43,East,93,0.0,0.0,91,0.00,,,0.00,Wunderground v.1.15,2013-03-08 08:48:00,
2013-03-08 02:51:00,22.2,20.0,30.43,East,94,0.0,0.0,91,0.00,,,0.00,Wunderground v.1.15,2013-03-08 08:51:00,
2013-03-08 02:52:00,22.2,20.0,30.43,East,93,0.0,0.0,91,0.00,,,0.00,Wunderground v.1.15,2013-03-08 08:52:00,
2013-03-08 02:53:00,22.1,19.9,30.43,East,93,0.0,0.0,91,0.00,,,0.00,Wunderground v.1.15,2013-03-08 08:53:00,
2013-03-08 02:56:00,22.1,19.9,30.43,East,91,0.0,0.0,91,0.00,,,0.00,Wunderground v.1.15,2013-03-08 08:56:00,
2013-03-08 02:57:00,22.1,20.1,30.43,East,91,0.0,0.0,92,0.00,,,0.00,Wunderground v.1.15,2013-03-08 08:57:00,
2013-03-08 02:58:00,22.2,20.2,30.44,East,91,0.0,0.0,92,0.00,,,0.00,Wunderground v.1.15,2013-03-08 08:58:00,
2013-03-08 03:02:00,22.3,20.3,30.44,East,91,0.0,0.0,92,0.00,,,0.00,Wunderground v.1.15,2013-03-08 09:02:00,
2013-03-08 03:05:00,22.3,20.3,30.44,East,91,0.0,0.0,92,0.00,,,0.00,Wunderground v.1.15,2013-03-08 09:05:00,
2013-03-08 03:09:00,21.8,19.6,30.44,East,92,0.0,0.0,91,0.00,,,0.00,Wunderground v.1.15,2013-03-08 09:09:00,
2013-03-08 03:10:00,21.7,19.5,30.44,East,92,0.0,0.0,91,0.00,,,0.00,Wunderground v.1.15,2013-03-08 09:10:00,
2013-03-08 03:13:00,22.0,20.0,30.44,East,95,0.0,0.0,92,0.00,,,0.00,Wunderground v.1.15,2013-03-08 09:13:00,
2013-03-08 03:15:00,22.2,20.5,30.44,ESE,115,0.0,0.0,93,0.00,,,0.00,Wunderground v.1.15,2013-03-08 09:15:00,
2013-03-08 03:18:00,22.6,20.9,30.44,ESE,115,0.0,0.0,93,0.00,,,0.00,Wunderground v.1.15,2013-03-08 09:18:00,
2013-03-08 03:21:00,22.8,21.1,30.44,ESE,113,0.0,0.0,93,0.00,,,0.00,Wunderground v.1.15,2013-03-08 09:21:00,
2013-03-08 03:22:00,22.8,21.1,30.44,ESE,113,0.0,0.0,93,0.00,,,0.00,Wunderground v.1.15,2013-03-08 09:22:00,
2013-03-08 03:23:00,22.8,21.1,30.44,ESE,113,0.0,0.0,93,0.00,,,0.00,Wunderground v.1.15,2013-03-08 09:23:00,
2013-03-08 03:26:00,22.8,21.1,30.44,ESE,113,0.0,0.0,93,0.00,,,0.00,Wunderground v.1.15,2013-03-08 09:26:00,
2013-03-08 03:28:00,22.8,21.1,30.44,ESE,113,0.0,0.0,93,0.00,,,0.00,Wunderground v.1.15,2013-03-08 09:28:00,
2013-03-08 03:33:00,22.4,20.4,30.44,ESE,113,0.0,0.0,92,0.00,,,0.00,Wunderground v.1.15,2013-03-08 09:33:00,
2013-03-08 03:35:00,22.4,20.4,30.44,ESE,113,0.0,0.0,92,0.00,,,0.00,Wunderground v.1.15,2013-03-08 09:35:00,
2013-03-08 03:37:00,22.4,20.4,30.44,East,81,0.0,0.0,92,0.00,,,0.00,Wunderground v.1.15,2013-03-08 09:37:00,
2013-03-08 03:38:00,22.4,20.7,30.44,ENE,63,0.0,0.0,93,0.00,,,0.00,Wunderground v.1.15,2013-03-08 09:38:00,
2013-03-08 03:40:00,22.4,20.7,30.44,East,85,0.0,0.0,93,0.00,,,0.00,Wunderground v.1.15,2013-03-08 09:40:00,
2013-03-08 03:45:00,22.4,20.7,30.44,ENE,68,0.0,0.0,93,0.00,,,0.00,Wunderground v.1.15,2013-03-08 09:45:00,
2013-03-08 03:47:00,22.7,21.0,30.44,NE,56,0.0,0.0,93,0.00,,,0.00,Wunderground v.1.15,2013-03-08 09:47:00,
2013-03-08 03:50:00,22.5,20.8,30.44,East,80,0.0,0.0,93,0.00,,,0.00,Wunderground v.1.15,2013-03-08 09:50:00,
2013-03-08 03:51:00,22.4,20.7,30.44,ENE,60,0.0,0.0,93,0.00,,,0.00,Wunderground v.1.15,2013-03-08 09:51:00,
2013-03-08 03:55:00,22.6,20.9,30.44,ENE,68,0.0,0.0,93,0.00,,,0.00,Wunderground v.1.15,2013-03-08 09:55:00,
2013-03-08 03:57:00,22.9,21.2,30.44,ESE,102,0.0,0.0,93,0.00,,,0.00,Wunderground v.1.15,2013-03-08 09:57:00,
2013-03-08 03:58:00,23.0,21.3,30.44,East,86,0.0,0.0,93,0.00,,,0.00,Wunderground v.1.15,2013-03-08 09:58:00,
2013-03-08 04:00:00,23.0,21.3,30.44,East,86,0.0,0.0,93,0.00,,,0.00,Wunderground v.1.15,2013-03-08 10:00:00,
2013-03-08 04:03:00,23.0,21.3,30.44,ENE,74,0.0,0.0,93,0.00,,,0.00,Wunderground v.1.15,2013-03-08 10:03:00,
2013-03-08 04:04:00,22.9,21.2,30.44,East,94,0.0,0.0,93,0.00,,,0.00,Wunderground v.1.15,2013-03-08 10:04:00,
2013-03-08 04:05:00,23.0,21.3,30.44,East,98,0.0,0.0,93,0.00,,,0.00,Wunderground v.1.15,2013-03-08 10:05:00,
2013-03-08 04:07:00,23.0,21.3,30.44,ESE,111,0.0,0.0,93,0.00,,,0.00,Wunderground v.1.15,2013-03-08 10:07:00,
2013-03-08 04:09:00,23.1,21.4,30.44,East,83,0.0,0.0,93,0.00,,,0.00,Wunderground v.1.15,2013-03-08 10:09:00,
2013-03-08 04:11:00,23.3,21.6,30.44,East,87,0.0,0.0,93,0.00,,,0.00,Wunderground v.1.15,2013-03-08 10:11:00,
2013-03-08 04:13:00,23.4,21.7,30.44,East,87,0.0,0.0,93,0.00,,,0.00,Wunderground v.1.15,2013-03-08 10:13:00,
2013-03-08 04:15:00,23.5,21.8,30.44,East,80,0.0,0.0,93,0.00,,,0.00,Wunderground v.1.15,2013-03-08 10:15:00,
2013-03-08 04:16:00,23.5,21.8,30.44,East,80,0.0,0.0,93,0.00,,,0.00,Wunderground v.1.15,2013-03-08 10:16:00,
2013-03-08 04:18:00,23.5,21.8,30.44,East,86,0.0,0.0,93,0.00,,,0.00,Wunderground v.1.15,2013-03-08 10:18:00,
2013-03-08 04:20:00,23.5,21.8,30.44,ENE,65,0.0,0.0,93,0.00,,,0.00,Wunderground v.1.15,2013-03-08 10:20:00,
2013-03-08 04:22:00,23.5,21.8,30.44,East,86,0.0,0.0,93,0.00,,,0.00,Wunderground v.1.15,2013-03-08 10:22:00,
2013-03-08 04:27:00,23.4,21.7,30.44,East,85,0.0,0.0,93,0.00,,,0.00,Wunderground v.1.15,2013-03-08 10:27:00,
2013-03-08 04:28:00,23.3,21.6,30.44,East,86,0.0,0.0,93,0.00,,,0.00,Wunderground v.1.15,2013-03-08 10:28:00,
2013-03-08 04:29:00,23.4,21.7,30.44,East,83,0.0,0.0,93,0.00,,,0.00,Wunderground v.1.15,2013-03-08 10:29:00,
2013-03-08 04:32:00,23.4,21.7,30.44,ENE,69,0.0,0.0,93,0.00,,,0.00,Wunderground v.1.15,2013-03-08 10:32:00,
2013-03-08 04:33:00,23.4,21.7,30.44,East,98,0.0,0.0,93,0.00,,,0.00,Wunderground v.1.15,2013-03-08 10:33:00,
2013-03-08 04:35:00,23.4,21.7,30.44,ESE,105,0.0,0.0,93,0.00,,,0.00,Wunderground v.1.15,2013-03-08 10:35:00,
2013-03-08 04:39:00,23.5,21.8,30.44,East,85,0.0,0.0,93,0.00,,,0.00,Wunderground v.1.15,2013-03-08 10:39:00,
2013-03-08 04:40:00,23.6,21.9,30.44,East,99,0.0,0.0,93,0.00,,,0.00,Wunderground v.1.15,2013-03-08 10:40:00,
2013-03-08 04:41:00,23.6,21.9,30.44,East,98,0.0,0.0,93,0.00,,,0.00,Wunderground v.1.15,2013-03-08 10:41:00,
2013-03-08 04:42:00,23.6,21.9,30.44,ENE,78,0.0,0.0,93,0.00,,,0.00,Wunderground v.1.15,2013-03-08 10:42:00,
2013-03-08 04:45:00,23.6,21.9,30.44,East,83,0.0,0.0,93,0.00,,,0.00,Wunderground v.1.15,2013-03-08 10:45:00,
2013-03-08 04:46:00,23.7,22.0,30.44,ENE,78,0.0,0.0,93,0.00,,,0.00,Wunderground v.1.15,2013-03-08 10:46:00,
2013-03-08 04:48:00,23.8,22.1,30.44,ENE,68,0.0,0.0,93,0.00,,,0.00,Wunderground v.1.15,2013-03-08 10:48:00,
2013-03-08 04:51:00,23.8,22.1,30.44,East,101,0.0,0.0,93,0.00,,,0.00,Wunderground v.1.15,2013-03-08 10:51:00,
2013-03-08 04:53:00,23.8,22.1,30.44,ENE,67,0.0,0.0,93,0.00,,,0.00,Wunderground v.1.15,2013-03-08 10:53:00,
2013-03-08 04:54:00,23.9,22.2,30.44,ENE,75,0.0,0.0,93,0.00,,,0.00,Wunderground v.1.15,2013-03-08 10:54:00,
2013-03-08 04:58:00,23.8,22.1,30.44,ENE,71,0.0,0.0,93,0.00,,,0.00,Wunderground v.1.15,2013-03-08 10:58:00,
2013-03-08 05:00:00,23.8,22.1,30.45,ENE,71,0.0,0.0,93,0.00,,,0.00,Wunderground v.1.15,2013-03-08 11:00:00,
2013-03-08 05:04:00,23.8,22.1,30.45,ENE,68,0.0,0.0,93,0.00,,,0.00,Wunderground v.1.15,2013-03-08 11:04:00,
2013-03-08 05:05:00,23.9,22.2,30.45,East,92,0.0,0.0,93,0.00,,,0.00,Wunderground v.1.15,2013-03-08 11:05:00,
2013-03-08 05:08:00,23.9,22.2,30.45,East,85,0.0,0.0,93,0.00,,,0.00,Wunderground v.1.15,2013-03-08 11:08:00,
2013-03-08 05:11:00,23.9,22.2,30.45,East,90,0.0,0.0,93,0.00,,,0.00,Wunderground v.1.15,2013-03-08 11:11:00,
2013-03-08 05:14:00,24.0,22.3,30.45,ENE,73,0.0,0.0,93,0.00,,,0.00,Wunderground v.1.15,2013-03-08 11:14:00,
2013-03-08 05:17:00,24.0,22.3,30.45,East,79,0.0,0.0,93,0.00,,,0.00,Wunderground v.1.15,2013-03-08 11:17:00,
2013-03-08 05:18:00,24.0,22.3,30.45,East,83,0.0,0.0,93,0.00,,,0.00,Wunderground v.1.15,2013-03-08 11:18:00,
2013-03-08 05:20:00,24.0,22.3,30.45,ENE,68,0.0,0.0,93,0.00,,,0.00,Wunderground v.1.15,2013-03-08 11:20:00,
2013-03-08 05:22:00,24.0,22.3,30.45,ENE,74,0.0,0.0,93,0.00,,,0.00,Wunderground v.1.15,2013-03-08 11:22:00,
2013-03-08 05:25:00,23.9,21.9,30.45,ENE,58,0.0,0.0,92,0.00,,,0.00,Wunderground v.1.15,2013-03-08 11:25:00,
2013-03-08 05:26:00,23.9,21.9,30.45,ENE,74,0.0,0.0,92,0.00,,,0.00,Wunderground v.1.15,2013-03-08 11:26:00,
2013-03-08 05:28:00,23.8,21.8,30.45,East,79,0.0,0.0,92,0.00,,,0.00,Wunderground v.1.15,2013-03-08 11:28:00,
2013-03-08 05:30:00,23.8,21.8,30.45,East,79,0.0,0.0,92,0.00,,,0.00,Wunderground v.1.15,2013-03-08 11:30:00,
2013-03-08 05:31:00,23.8,21.8,30.45,ESE,113,0.0,0.0,92,0.00,,,0.00,Wunderground v.1.15,2013-03-08 11:31:00,
2013-03-08 05:32:00,23.8,21.8,30.45,ESE,106,0.0,0.0,92,0.00,,,0.00,Wunderground v.1.15,2013-03-08 11:32:00,
2013-03-08 05:36:00,23.8,21.8,30.45,East,94,0.0,0.0,92,0.00,,,0.00,Wunderground v.1.15,2013-03-08 11:36:00,
2013-03-08 05:37:00,23.8,21.8,30.46,East,85,0.0,0.0,92,0.00,,,0.00,Wunderground v.1.15,2013-03-08 11:37:00,
2013-03-08 05:39:00,23.8,21.8,30.45,East,96,0.0,0.0,92,0.00,,,0.00,Wunderground v.1.15,2013-03-08 11:39:00,
2013-03-08 05:41:00,23.8,21.8,30.45,East,96,0.0,0.0,92,0.00,,,0.00,Wunderground v.1.15,2013-03-08 11:41:00,
2013-03-08 05:44:00,23.8,21.8,30.45,East,85,0.0,0.0,92,0.00,,,0.00,Wunderground v.1.15,2013-03-08 11:44:00,
2013-03-08 05:46:00,23.8,21.8,30.45,ENE,63,0.0,0.0,92,0.00,,,0.00,Wunderground v.1.15,2013-03-08 11:46:00,
2013-03-08 05:49:00,23.8,21.8,30.45,ENE,78,0.0,0.0,92,0.00,,,0.00,Wunderground v.1.15,2013-03-08 11:49:00,
2013-03-08 05:50:00,23.8,21.8,30.45,ENE,59,0.0,0.0,92,0.00,,,0.00,Wunderground v.1.15,2013-03-08 11:50:00,
2013-03-08 05:56:00,23.9,21.9,30.45,East,89,0.0,0.0,92,0.00,,,0.00,Wunderground v.1.15,2013-03-08 11:56:00,
2013-03-08 05:57:00,23.9,21.9,30.45,East,98,0.0,0.0,92,0.00,,,0.00,Wunderground v.1.15,2013-03-08 11:57:00,
2013-03-08 05:58:00,23.9,21.9,30.45,East,97,0.0,0.0,92,0.00,,,0.00,Wunderground v.1.15,2013-03-08 11:58:00,
2013-03-08 06:03:00,23.8,21.8,30.45,East,92,0.0,0.0,92,0.00,,,0.00,Wunderground v.1.15,2013-03-08 12:03:00,
2013-03-08 06:05:00,23.7,21.7,30.45,East,84,0.0,0.0,92,0.00,,,0.00,Wunderground v.1.15,2013-03-08 12:05:00,
2013-03-08 06:07:00,23.6,21.6,30.45,ENE,75,0.0,0.0,92,0.00,,,0.00,Wunderground v.1.15,2013-03-08 12:07:00,
2013-03-08 06:09:00,23.6,21.6,30.45,East,100,0.0,0.0,92,0.00,,,0.00,Wunderground v.1.15,2013-03-08 12:09:00,
2013-03-08 06:10:00,23.6,21.6,30.45,East,100,0.0,0.0,92,0.00,,,0.00,Wunderground v.1.15,2013-03-08 12:10:00,
2013-03-08 06:12:00,23.6,21.6,30.45,East,94,0.0,0.0,92,0.00,,,0.00,Wunderground v.1.15,2013-03-08 12:12:00,
2013-03-08 06:14:00,23.6,21.6,30.45,East,96,0.0,0.0,92,0.00,,,0.00,Wunderground v.1.15,2013-03-08 12:14:00,
2013-03-08 06:15:00,23.6,21.6,30.45,East,89,0.0,0.0,92,0.00,,,0.00,Wunderground v.1.15,2013-03-08 12:15:00,
2013-03-08 06:16:00,23.6,21.6,30.45,East,99,0.0,0.0,92,0.00,,,0.00,Wunderground v.1.15,2013-03-08 12:16:00,
2013-03-08 06:18:00,23.6,21.6,30.45,East,99,0.0,0.0,92,0.00,,,0.00,Wunderground v.1.15,2013-03-08 12:18:00,
2013-03-08 06:20:00,23.6,21.6,30.45,East,99,0.0,0.0,92,0.00,,,0.00,Wunderground v.1.15,2013-03-08 12:20:00,
2013-03-08 06:22:00,23.6,21.6,30.45,East,99,0.0,0.0,92,0.00,,,0.00,Wunderground v.1.15,2013-03-08 12:22:00,
2013-03-08 06:23:00,23.6,21.6,30.45,ESE,113,0.0,0.0,92,0.00,,,0.00,Wunderground v.1.15,2013-03-08 12:23:00,
2013-03-08 06:24:00,23.6,21.6,30.45,ESE,109,0.0,0.0,92,0.00,,,0.00,Wunderground v.1.15,2013-03-08 12:24:00,
2013-03-08 06:27:00,23.6,21.6,30.45,East,90,0.0,0.0,92,0.00,,,0.00,Wunderground v.1.15,2013-03-08 12:27:00,
2013-03-08 06:28:00,23.6,21.6,30.45,East,100,0.0,0.0,92,0.00,,,0.00,Wunderground v.1.15,2013-03-08 12:28:00,
2013-03-08 06:29:00,23.6,21.6,30.45,East,91,0.0,0.0,92,0.00,,,0.00,Wunderground v.1.15,2013-03-08 12:29:00,
2013-03-08 06:31:00,23.6,21.6,30.45,East,85,0.0,0.0,92,0.00,,,0.00,Wunderground v.1.15,2013-03-08 12:31:00,
2013-03-08 06:32:00,23.6,21.6,30.45,East,85,0.0,0.0,92,0.00,,,0.00,Wunderground v.1.15,2013-03-08 12:32:00,
2013-03-08 06:33:00,23.7,21.7,30.45,East,85,0.0,0.0,92,0.00,,,0.00,Wunderground v.1.15,2013-03-08 12:33:00,
2013-03-08 06:35:00,23.7,21.7,30.45,East,79,0.0,0.0,92,0.00,,,0.00,Wunderground v.1.15,2013-03-08 12:35:00,
2013-03-08 06:36:00,23.6,21.6,30.45,East,95,0.0,0.0,92,0.00,,,0.00,Wunderground v.1.15,2013-03-08 12:36:00,
2013-03-08 06:38:00,23.6,21.6,30.45,ENE,67,0.0,0.0,92,0.00,,,0.00,Wunderground v.1.15,2013-03-08 12:38:00,
2013-03-08 06:40:00,23.5,21.5,30.45,ENE,78,0.0,0.0,92,0.00,,,0.00,Wunderground v.1.15,2013-03-08 12:40:00,
2013-03-08 06:41:00,23.5,21.5,30.45,ENE,74,0.0,0.0,92,0.00,,,0.00,Wunderground v.1.15,2013-03-08 12:41:00,
2013-03-08 06:44:00,23.6,21.6,30.45,East,94,0.0,0.0,92,0.00,,,0.00,Wunderground v.1.15,2013-03-08 12:44:00,
2013-03-08 06:46:00,23.7,21.7,30.45,ENE,75,0.0,0.0,92,0.00,,,0.00,Wunderground v.1.15,2013-03-08 12:46:00,
2013-03-08 06:48:00,23.9,21.9,30.45,ENE,72,0.0,0.0,92,0.00,,,0.00,Wunderground v.1.15,2013-03-08 12:48:00,
2013-03-08 06:49:00,23.9,21.9,30.45,East,87,0.0,0.0,92,0.00,,,0.00,Wunderground v.1.15,2013-03-08 12:49:00,
2013-03-08 06:51:00,24.1,22.1,30.45,ENE,69,0.0,0.0,92,0.00,,,0.00,Wunderground v.1.15,2013-03-08 12:51:00,
2013-03-08 06:53:00,24.2,22.2,30.45,ENE,72,0.0,0.0,92,0.00,,,0.00,Wunderground v.1.15,2013-03-08 12:53:00,
2013-03-08 06:54:00,24.3,22.3,30.45,ENE,74,0.0,0.0,92,0.00,,,0.00,Wunderground v.1.15,2013-03-08 12:54:00,
2013-03-08 06:57:00,24.5,22.5,30.45,East,91,0.0,0.0,92,0.00,,,0.00,Wunderground v.1.15,2013-03-08 12:57:00,
2013-03-08 06:58:00,24.7,22.7,30.45,East,79,0.0,0.0,92,0.00,,,0.00,Wunderground v.1.15,2013-03-08 12:58:00,
2013-03-08 07:00:00,24.8,22.8,30.45,ENE,68,0.0,0.0,92,0.00,,,0.00,Wunderground v.1.15,2013-03-08 13:00:00,
2013-03-08 07:04:00,25.1,23.1,30.45,East,90,0.0,0.0,92,0.00,,,0.00,Wunderground v.1.15,2013-03-08 13:04:00,
2013-03-08 07:06:00,25.3,23.3,30.45,ENE,65,0.0,0.0,92,0.00,,,0.00,Wunderground v.1.15,2013-03-08 13:06:00,
2013-03-08 07:08:00,25.4,23.1,30.45,East,80,0.0,0.0,91,0.00,,,0.00,Wunderground v.1.15,2013-03-08 13:08:00,
2013-03-08 07:10:00,25.6,23.3,30.45,ENE,72,0.0,0.0,91,0.00,,,0.00,Wunderground v.1.15,2013-03-08 13:10:00,
2013-03-08 07:11:00,25.7,23.4,30.45,ESE,104,0.0,0.0,91,0.00,,,0.00,Wunderground v.1.15,2013-03-08 13:11:00,
2013-03-08 07:15:00,26.0,23.7,30.45,ENE,75,0.0,0.0,91,0.00,,,0.00,Wunderground v.1.15,2013-03-08 13:15:00,
2013-03-08 07:16:00,26.1,23.8,30.45,ESE,117,0.0,0.0,91,0.00,,,0.00,Wunderground v.1.15,2013-03-08 13:16:00,
2013-03-08 07:17:00,26.2,23.7,30.45,ESE,113,0.0,0.0,90,0.00,,,0.00,Wunderground v.1.15,2013-03-08 13:17:00,
2013-03-08 07:19:00,26.3,23.8,30.45,ESE,121,0.0,0.0,90,0.00,,,0.00,Wunderground v.1.15,2013-03-08 13:19:00,
2013-03-08 07:20:00,26.3,23.8,30.45,ESE,113,0.0,0.0,90,0.00,,,0.00,Wunderground v.1.15,2013-03-08 13:20:00,
2013-03-08 07:23:00,26.5,24.0,30.45,ESE,117,0.0,0.0,90,0.00,,,0.00,Wunderground v.1.15,2013-03-08 13:23:00,
2013-03-08 07:25:00,26.6,23.8,30.45,ENE,77,0.0,0.0,89,0.00,,,0.00,Wunderground v.1.15,2013-03-08 13:25:00,
2013-03-08 07:28:00,26.8,24.0,30.45,ESE,110,0.0,0.0,89,0.00,,,0.00,Wunderground v.1.15,2013-03-08 13:28:00,
2013-03-08 07:30:00,27.0,24.2,30.45,SE,126,0.0,0.0,89,0.00,,,0.00,Wunderground v.1.15,2013-03-08 13:30:00,
2013-03-08 07:32:00,27.1,24.0,30.45,SE,131,0.0,0.0,88,0.00,,,0.00,Wunderground v.1.15,2013-03-08 13:32:00,
2013-03-08 07:33:00,27.2,24.1,30.45,ESE,117,0.0,0.0,88,0.00,,,0.00,Wunderground v.1.15,2013-03-08 13:33:00,
2013-03-08 07:36:00,27.4,24.3,30.45,ESE,113,0.0,0.0,88,0.00,,,0.00,Wunderground v.1.15,2013-03-08 13:36:00,
2013-03-08 07:37:00,27.5,24.4,30.45,ESE,110,0.0,0.0,88,0.00,,,0.00,Wunderground v.1.15,2013-03-08 13:37:00,
2013-03-08 07:40:00,27.8,24.7,30.45,ESE,113,0.0,0.0,88,0.00,,,0.00,Wunderground v.1.15,2013-03-08 13:40:00,
2013-03-08 07:41:00,27.8,24.7,30.45,ESE,120,0.0,0.0,88,0.00,,,0.00,Wunderground v.1.15,2013-03-08 13:41:00,
2013-03-08 07:42:00,27.9,24.5,30.45,ESE,107,0.0,0.0,87,0.00,,,0.00,Wunderground v.1.15,2013-03-08 13:42:00,
2013-03-08 07:45:00,28.1,24.7,30.45,East,101,0.0,0.0,87,0.00,,,0.00,Wunderground v.1.15,2013-03-08 13:45:00,
2013-03-08 07:48:00,28.5,25.1,30.45,East,96,0.0,0.0,87,0.00,,,0.00,Wunderground v.1.15,2013-03-08 13:48:00,
2013-03-08 07:49:00,28.6,25.2,30.45,ESE,105,0.0,0.0,87,0.00,,,0.00,Wunderground v.1.15,2013-03-08 13:49:00,
2013-03-08 07:53:00,29.0,25.3,30.45,ESE,110,0.0,0.0,86,0.00,,,0.00,Wunderground v.1.15,2013-03-08 13:53:00,
2013-03-08 07:54:00,29.1,25.4,30.45,SE,131,0.0,0.0,86,0.00,,,0.00,Wunderground v.1.15,2013-03-08 13:54:00,
2013-03-08 07:56:00,29.3,25.4,30.45,ESE,108,0.0,0.0,85,0.00,,,0.00,Wunderground v.1.15,2013-03-08 13:56:00,
2013-03-08 07:58:00,29.5,25.5,30.45,East,98,0.0,0.0,85,0.00,,,0.00,Wunderground v.1.15,2013-03-08 13:58:00,
2013-03-08 08:00:00,29.7,25.7,30.45,East,93,0.0,0.0,85,0.00,,,0.00,Wunderground v.1.15,2013-03-08 14:00:00,
2013-03-08 08:01:00,29.9,25.7,30.45,ESE,103,0.0,4.0,84,0.00,,,0.00,Wunderground v.1.15,2013-03-08 14:01:00,
2013-03-08 08:03:00,30.0,25.8,30.45,East,87,1.0,4.0,84,0.00,,,0.00,Wunderground v.1.15,2013-03-08 14:03:00,
2013-03-08 08:05:00,30.2,25.9,30.45,East,89,1.0,4.0,84,0.00,,,0.00,Wunderground v.1.15,2013-03-08 14:05:00,
2013-03-08 08:06:00,30.3,26.0,30.45,SE,125,1.0,4.0,84,0.00,,,0.00,Wunderground v.1.15,2013-03-08 14:06:00,
2013-03-08 08:09:00,30.6,26.1,30.44,SE,125,2.0,2.0,83,0.00,,,0.00,Wunderground v.1.15,2013-03-08 14:09:00,
2013-03-08 08:10:00,30.6,26.1,30.45,ESE,109,2.0,2.0,83,0.00,,,0.00,Wunderground v.1.15,2013-03-08 14:10:00,
2013-03-08 08:12:00,30.8,26.0,30.45,ESE,113,2.0,5.0,82,0.00,,,0.00,Wunderground v.1.15,2013-03-08 14:12:00,
2013-03-08 08:15:00,31.0,26.1,30.45,East,101,3.0,5.0,82,0.00,,,0.00,Wunderground v.1.15,2013-03-08 14:15:00,
2013-03-08 08:17:00,31.2,26.3,30.45,ENE,67,2.0,5.0,82,0.00,,,0.00,Wunderground v.1.15,2013-03-08 14:17:00,
2013-03-08 08:18:00,31.3,26.1,30.45,ESE,109,2.0,5.0,81,0.00,,,0.00,Wunderground v.1.15,2013-03-08 14:18:00,
2013-03-08 08:19:00,31.4,26.2,30.45,ESE,117,2.0,5.0,81,0.00,,,0.00,Wunderground v.1.15,2013-03-08 14:19:00,
2013-03-08 08:20:00,31.5,26.3,30.45,East,97,2.0,5.0,81,0.00,,,0.00,Wunderground v.1.15,2013-03-08 14:20:00,
2013-03-08 08:23:00,31.7,26.5,30.45,East,92,3.0,5.0,81,0.00,,,0.00,Wunderground v.1.15,2013-03-08 14:23:00,
2013-03-08 08:24:00,31.8,26.3,30.45,ESE,112,2.0,5.0,80,0.00,,,0.00,Wunderground v.1.15,2013-03-08 14:24:00,
2013-03-08 08:26:00,32.0,26.5,30.45,ESE,123,2.0,5.0,80,0.00,,,0.00,Wunderground v.1.15,2013-03-08 14:26:00,
2013-03-08 08:28:00,32.1,26.6,30.45,East,90,3.0,5.0,80,0.00,,,0.00,Wunderground v.1.15,2013-03-08 14:28:00,
2013-03-08 08:29:00,32.2,26.7,30.45,ENE,58,3.0,3.0,80,0.00,,,0.00,Wunderground v.1.15,2013-03-08 14:29:00,
2013-03-08 08:30:00,32.3,26.8,30.45,ESE,122,2.0,4.0,80,0.00,,,0.00,Wunderground v.1.15,2013-03-08 14:30:00,
2013-03-08 08:33:00,32.7,26.9,30.45,ENE,70,2.0,4.0,79,0.00,,,0.00,Wunderground v.1.15,2013-03-08 14:33:00,
2013-03-08 08:35:00,32.8,27.0,30.45,ESE,109,2.0,5.0,79,0.00,,,0.00,Wunderground v.1.15,2013-03-08 14:35:00,
2013-03-08 08:36:00,32.8,26.7,30.45,ESE,120,2.0,5.0,78,0.00,,,0.00,Wunderground v.1.15,2013-03-08 14:36:00,
2013-03-08 08:40:00,33.1,27.0,30.45,ESE,116,2.0,4.0,78,0.00,,,0.00,Wunderground v.1.15,2013-03-08 14:40:00,
2013-03-08 08:41:00,33.2,27.1,30.45,East,97,3.0,5.0,78,0.00,,,0.00,Wunderground v.1.15,2013-03-08 14:41:00,
2013-03-08 08:43:00,33.3,26.9,30.44,ENE,68,3.0,5.0,77,0.00,,,0.00,Wunderground v.1.15,2013-03-08 14:43:00,
2013-03-08 08:46:00,33.6,27.2,30.45,ESE,105,3.0,5.0,77,0.00,,,0.00,Wunderground v.1.15,2013-03-08 14:46:00,
2013-03-08 08:48:00,33.8,27.4,30.45,ESE,117,3.0,5.0,77,0.00,,,0.00,Wunderground v.1.15,2013-03-08 14:48:00,
2013-03-08 08:49:00,33.9,27.4,30.45,East,79,2.0,3.0,77,0.00,,,0.00,Wunderground v.1.15,2013-03-08 14:49:00,
2013-03-08 08:51:00,34.1,27.3,30.45,ENE,58,3.0,4.0,76,0.00,,,0.00,Wunderground v.1.15,2013-03-08 14:51:00,
2013-03-08 08:52:00,34.2,27.4,30.45,ESE,116,2.0,5.0,76,0.00,,,0.00,Wunderground v.1.15,2013-03-08 14:52:00,
2013-03-08 08:54:00,34.2,27.1,30.45,ESE,120,3.0,11.0,75,0.00,,,0.00,Wunderground v.1.15,2013-03-08 14:54:00,
2013-03-08 08:57:00,34.4,27.6,30.45,ESE,122,5.0,11.0,76,0.00,,,0.00,Wunderground v.1.15,2013-03-08 14:57:00,
2013-03-08 09:00:00,34.6,27.8,30.45,SE,124,5.0,6.0,76,0.00,,,0.00,Wunderground v.1.15,2013-03-08 15:00:00,
2013-03-08 09:02:00,34.8,28.0,30.45,SE,129,5.0,7.0,76,0.00,,,0.00,Wunderground v.1.15,2013-03-08 15:02:00,
2013-03-08 09:05:00,35.0,27.9,30.45,East,100,5.0,7.0,75,0.00,,,0.00,Wunderground v.1.15,2013-03-08 15:05:00,
2013-03-08 09:06:00,35.1,28.0,30.45,ESE,120,4.0,7.0,75,0.00,,,0.00,Wunderground v.1.15,2013-03-08 15:06:00,
2013-03-08 09:07:00,35.2,28.1,30.45,SE,143,4.0,7.0,75,0.00,,,0.00,Wunderground v.1.15,2013-03-08 15:07:00,
2013-03-08 09:08:00,35.2,28.1,30.45,SE,134,4.0,7.0,75,0.00,,,0.00,Wunderground v.1.15,2013-03-08 15:08:00,
2013-03-08 09:11:00,35.2,27.7,30.45,East,98,5.0,9.0,74,0.00,,,0.00,Wunderground v.1.15,2013-03-08 15:11:00,
2013-03-08 09:12:00,35.2,27.7,30.45,SE,136,6.0,9.0,74,0.00,,,0.00,Wunderground v.1.15,2013-03-08 15:12:00,
2013-03-08 09:14:00,35.2,27.7,30.45,ESE,120,6.0,10.0,74,0.00,,,0.00,Wunderground v.1.15,2013-03-08 15:14:00,
2013-03-08 09:15:00,35.2,27.7,30.45,SSE,148,7.0,10.0,74,0.00,,,0.00,Wunderground v.1.15,2013-03-08 15:15:00,
2013-03-08 09:17:00,35.2,27.7,30.46,SE,143,8.0,10.0,74,0.00,,,0.00,Wunderground v.1.15,2013-03-08 15:17:00,
2013-03-08 09:18:00,35.2,27.7,30.45,SE,131,8.0,10.0,74,0.00,,,0.00,Wunderground v.1.15,2013-03-08 15:18:00,
2013-03-08 09:20:00,35.2,27.7,30.45,ESE,103,8.0,8.0,74,0.00,,,0.00,Wunderground v.1.15,2013-03-08 15:20:00,
2013-03-08 09:21:00,35.3,27.8,30.45,SE,128,8.0,8.0,74,0.00,,,0.00,Wunderground v.1.15,2013-03-08 15:21:00,
2013-03-08 09:25:00,35.5,28.0,30.45,SE,127,7.0,9.0,74,0.00,,,0.00,Wunderground v.1.15,2013-03-08 15:25:00,
2013-03-08 09:27:00,35.7,28.2,30.45,ESE,113,7.0,9.0,74,0.00,,,0.00,Wunderground v.1.15,2013-03-08 15:27:00,
2013-03-08 09:28:00,35.7,28.2,30.45,SE,134,7.0,9.0,74,0.00,,,0.00,Wunderground v.1.15,2013-03-08 15:28:00,
2013-03-08 09:29:00,35.8,28.3,30.45,SSE,148,7.0,12.0,74,0.00,,,0.00,Wunderground v.1.15,2013-03-08 15:29:00,
2013-03-08 09:30:00,35.9,28.4,30.45,SE,134,7.0,12.0,74,0.00,,,0.00,Wunderground v.1.15,2013-03-08 15:30:00,
2013-03-08 09:33:00,36.2,28.7,30.45,SSE,160,7.0,12.0,74,0.00,,,0.00,Wunderground v.1.15,2013-03-08 15:33:00,
2013-03-08 09:34:00,36.3,28.5,30.45,SSE,165,7.0,12.0,73,0.00,,,0.00,Wunderground v.1.15,2013-03-08 15:34:00,
2013-03-08 09:35:00,36.4,28.9,30.45,SE,128,7.0,12.0,74,0.00,,,0.00,Wunderground v.1.15,2013-03-08 15:35:00,
2013-03-08 09:38:00,36.5,28.7,30.45,SSW,197,7.0,12.0,73,0.00,,,0.00,Wunderground v.1.15,2013-03-08 15:38:00,
2013-03-08 09:39:00,36.6,28.8,30.45,SSE,157,7.0,7.0,73,0.00,,,0.00,Wunderground v.1.15,2013-03-08 15:39:00,
2013-03-08 09:43:00,36.8,28.6,30.45,SSE,166,7.0,8.0,72,0.00,,,0.00,Wunderground v.1.15,2013-03-08 15:43:00,
2013-03-08 09:44:00,36.8,28.6,30.45,SSE,150,8.0,9.0,72,0.00,,,0.00,Wunderground v.1.15,2013-03-08 15:44:00,
2013-03-08 09:45:00,36.8,28.6,30.45,SSE,156,8.0,9.0,72,0.00,,,0.00,Wunderground v.1.15,2013-03-08 15:45:00,
2013-03-08 09:47:00,36.8,28.6,30.45,SSE,160,7.0,9.0,72,0.00,,,0.00,Wunderground v.1.15,2013-03-08 15:47:00,
2013-03-08 09:50:00,36.9,28.7,30.45,SE,141,7.0,8.0,72,0.00,,,0.00,Wunderground v.1.15,2013-03-08 15:50:00,
2013-03-08 09:51:00,36.9,28.7,30.45,SE,143,8.0,8.0,72,0.00,,,0.00,Wunderground v.1.15,2013-03-08 15:51:00,
2013-03-08 09:52:00,36.9,28.7,30.45,East,99,8.0,8.0,72,0.00,,,0.00,Wunderground v.1.15,2013-03-08 15:52:00,
2013-03-08 09:53:00,36.9,28.7,30.45,ESE,115,8.0,8.0,72,0.00,,,0.00,Wunderground v.1.15,2013-03-08 15:53:00,
2013-03-08 09:56:00,37.0,29.1,30.45,SE,143,8.0,12.0,73,0.00,,,0.00,Wunderground v.1.15,2013-03-08 15:56:00,
2013-03-08 10:00:00,37.1,28.9,30.45,South,175,8.0,12.0,72,0.00,,,0.00,Wunderground v.1.15,2013-03-08 16:00:00,
2013-03-08 10:01:00,37.1,28.9,30.45,SSE,154,9.0,13.0,72,0.00,,,0.00,Wunderground v.1.15,2013-03-08 16:01:00,
2013-03-08 10:05:00,37.0,28.8,30.45,SSE,153,9.0,13.0,72,0.00,,,0.00,Wunderground v.1.15,2013-03-08 16:05:00,
2013-03-08 10:06:00,37.0,28.8,30.45,SSE,153,9.0,13.0,72,0.00,,,0.00,Wunderground v.1.15,2013-03-08 16:06:00,
2013-03-08 10:08:00,37.0,28.8,30.45,South,170,9.0,13.0,72,0.00,,,0.00,Wunderground v.1.15,2013-03-08 16:08:00,
2013-03-08 10:10:00,37.0,28.8,30.45,SE,133,9.0,9.0,72,0.00,,,0.01,Wunderground v.1.15,2013-03-08 16:10:00,
2013-03-08 10:11:00,37.0,28.8,30.45,SSE,160,8.0,9.0,72,0.00,,,0.01,Wunderground v.1.15,2013-03-08 16:11:00,
2013-03-08 10:12:00,37.1,28.9,30.45,South,170,8.0,9.0,72,0.00,,,0.01,Wunderground v.1.15,2013-03-08 16:12:00,
2013-03-08 10:13:00,37.2,29.0,30.45,SSE,152,9.0,9.0,72,0.00,,,0.01,Wunderground v.1.15,2013-03-08 16:13:00,
2013-03-08 10:18:00,37.6,29.4,30.45,SE,136,8.0,10.0,72,0.00,,,0.01,Wunderground v.1.15,2013-03-08 16:18:00,
2013-03-08 10:19:00,37.7,29.5,30.45,SSE,167,7.0,7.0,72,0.00,,,0.01,Wunderground v.1.15,2013-03-08 16:19:00,
2013-03-08 10:21:00,37.9,29.7,30.45,South,176,7.0,7.0,72,0.00,,,0.01,Wunderground v.1.15,2013-03-08 16:21:00,
2013-03-08 10:22:00,37.9,29.7,30.45,SE,142,7.0,9.0,72,0.00,,,0.01,Wunderground v.1.15,2013-03-08 16:22:00,
2013-03-08 10:23:00,38.0,29.4,30.45,South,176,7.0,9.0,71,0.00,,,0.01,Wunderground v.1.15,2013-03-08 16:23:00,
2013-03-08 10:26:00,38.0,29.4,30.45,SSE,153,7.0,9.0,71,0.00,,,0.01,Wunderground v.1.15,2013-03-08 16:26:00,
2013-03-08 10:28:00,37.9,29.7,30.45,SSE,153,7.0,9.0,72,0.00,,,0.01,Wunderground v.1.15,2013-03-08 16:28:00,
2013-03-08 10:29:00,37.9,29.7,30.45,SE,143,7.0,7.0,72,0.00,,,0.01,Wunderground v.1.15,2013-03-08 16:29:00,
2013-03-08 10:30:00,37.9,29.3,30.45,SSE,166,7.0,7.0,71,0.00,,,0.01,Wunderground v.1.15,2013-03-08 16:30:00,
2013-03-08 10:31:00,37.9,29.7,30.45,SE,127,7.0,7.0,72,0.00,,,0.01,Wunderground v.1.15,2013-03-08 16:31:00,
2013-03-08 10:35:00,38.4,30.2,30.45,SE,139,6.0,7.0,72,0.00,,,0.01,Wunderground v.1.15,2013-03-08 16:35:00,
2013-03-08 10:38:00,38.4,29.8,30.45,SE,139,6.0,11.0,71,0.00,,,0.01,Wunderground v.1.15,2013-03-08 16:38:00,
2013-03-08 10:40:00,38.3,29.7,30.45,SSE,155,7.0,10.0,71,0.00,,,0.02,Wunderground v.1.15,2013-03-08 16:40:00,
2013-03-08 10:42:00,38.3,30.1,30.45,SSE,165,7.0,10.0,72,0.00,,,0.02,Wunderground v.1.15,2013-03-08 16:42:00,
2013-03-08 10:43:00,38.4,30.2,30.45,SE,139,8.0,10.0,72,0.00,,,0.02,Wunderground v.1.15,2013-03-08 16:43:00,
2013-03-08 10:45:00,38.4,29.8,30.45,SSE,153,8.0,11.0,71,0.00,,,0.02,Wunderground v.1.15,2013-03-08 16:45:00,
2013-03-08 10:47:00,38.5,29.9,30.45,South,174,8.0,11.0,71,0.00,,,0.02,Wunderground v.1.15,2013-03-08 16:47:00,
2013-03-08 10:48:00,38.5,29.9,30.45,SSE,153,8.0,12.0,71,0.00,,,0.02,Wunderground v.1.15,2013-03-08 16:48:00,
2013-03-08 10:51:00,38.6,30.0,30.45,South,174,8.0,9.0,71,0.00,,,0.02,Wunderground v.1.15,2013-03-08 16:51:00,
2013-03-08 10:52:00,38.6,30.0,30.45,South,180,8.0,9.0,71,0.00,,,0.02,Wunderground v.1.15,2013-03-08 16:52:00,
2013-03-08 10:54:00,38.6,30.0,30.45,South,186,9.0,9.0,71,0.00,,,0.02,Wunderground v.1.15,2013-03-08 16:54:00,
2013-03-08 10:56:00,38.7,30.4,30.45,South,169,9.0,9.0,72,0.00,,,0.02,Wunderground v.1.15,2013-03-08 16:56:00,
2013-03-08 10:57:00,38.7,30.4,30.45,South,171,9.0,9.0,72,0.00,,,0.02,Wunderground v.1.15,2013-03-08 16:57:00,
2013-03-08 11:00:00,38.8,30.5,30.45,South,184,8.0,10.0,72,0.00,,,0.02,Wunderground v.1.15,2013-03-08 17:00:00,
2013-03-08 11:03:00,38.9,30.6,30.44,SSE,155,8.0,10.0,72,0.00,,,0.02,Wunderground v.1.15,2013-03-08 17:03:00,
2013-03-08 11:04:00,38.9,30.6,30.45,SSE,168,8.0,10.0,72,0.00,,,0.02,Wunderground v.1.15,2013-03-08 17:04:00,
2013-03-08 11:09:00,39.1,30.5,30.44,SSE,166,7.0,10.0,71,0.00,,,0.02,Wunderground v.1.15,2013-03-08 17:09:00,
2013-03-08 11:10:00,39.1,30.5,30.44,SSE,167,7.0,7.0,71,0.00,,,0.02,Wunderground v.1.15,2013-03-08 17:10:00,
2013-03-08 11:12:00,39.2,30.6,30.44,SE,141,7.0,8.0,71,0.00,,,0.02,Wunderground v.1.15,2013-03-08 17:12:00,
2013-03-08 11:13:00,39.2,30.6,30.44,SE,131,7.0,8.0,71,0.00,,,0.02,Wunderground v.1.15,2013-03-08 17:13:00,
2013-03-08 11:15:00,39.2,30.2,30.44,SSE,160,7.0,11.0,70,0.00,,,0.02,Wunderground v.1.15,2013-03-08 17:15:00,
2013-03-08 11:16:00,39.1,30.1,30.44,SE,145,8.0,11.0,70,0.00,,,0.02,Wunderground v.1.15,2013-03-08 17:16:00,
2013-03-08 11:19:00,39.0,30.0,30.44,SSE,156,8.0,13.0,70,0.00,,,0.02,Wunderground v.1.15,2013-03-08 17:19:00,
2013-03-08 11:20:00,39.0,30.4,30.44,SSE,155,8.0,8.0,71,0.00,,,0.02,Wunderground v.1.15,2013-03-08 17:20:00,
2013-03-08 11:22:00,39.1,30.5,30.44,SE,143,8.0,11.0,71,0.00,,,0.02,Wunderground v.1.15,2013-03-08 17:22:00,
2013-03-08 11:25:00,39.2,30.6,30.44,South,171,9.0,11.0,71,0.00,,,0.02,Wunderground v.1.15,2013-03-08 17:25:00,
2013-03-08 11:29:00,39.3,30.7,30.43,SSE,167,8.0,11.0,71,0.00,,,0.02,Wunderground v.1.15,2013-03-08 17:29:00,
2013-03-08 11:32:00,39.4,30.8,30.43,SSE,158,8.0,9.0,71,0.00,,,0.02,Wunderground v.1.15,2013-03-08 17:32:00,
2013-03-08 11:33:00,39.4,30.4,30.43,SE,141,8.0,10.0,70,0.00,,,0.02,Wunderground v.1.15,2013-03-08 17:33:00,
2013-03-08 11:36:00,39.4,30.4,30.43,South,174,8.0,10.0,70,0.00,,,0.02,Wunderground v.1.15,2013-03-08 17:36:00,
2013-03-08 11:37:00,39.4,30.8,30.43,SSE,158,8.0,10.0,71,0.00,,,0.02,Wunderground v.1.15,2013-03-08 17:37:00,
2013-03-08 11:39:00,39.6,30.6,30.43,SSE,147,8.0,8.0,70,0.00,,,0.03,Wunderground v.1.15,2013-03-08 17:39:00,
2013-03-08 11:44:00,39.5,30.5,30.43,SSE,148,8.0,11.0,70,0.00,,,0.03,Wunderground v.1.15,2013-03-08 17:44:00,
2013-03-08 11:45:00,39.5,30.5,30.43,South,181,8.0,11.0,70,0.00,,,0.03,Wunderground v.1.15,2013-03-08 17:45:00,
2013-03-08 11:46:00,39.5,30.9,30.42,South,184,8.0,11.0,71,0.00,,,0.03,Wunderground v.1.15,2013-03-08 17:46:00,
2013-03-08 11:49:00,39.7,30.7,30.43,SE,140,7.0,11.0,70,0.00,,,0.03,Wunderground v.1.15,2013-03-08 17:49:00,
2013-03-08 11:50:00,39.8,30.8,30.42,SSE,154,7.0,7.0,70,0.00,,,0.03,Wunderground v.1.15,2013-03-08 17:50:00,
2013-03-08 11:51:00,39.9,30.9,30.43,SSE,148,7.0,7.0,70,0.00,,,0.03,Wunderground v.1.15,2013-03-08 17:51:00,
2013-03-08 11:53:00,40.0,31.0,30.43,SSE,155,6.0,8.0,70,0.00,,,0.03,Wunderground v.1.15,2013-03-08 17:53:00,
2013-03-08 11:54:00,40.0,30.6,30.43,SE,144,7.0,8.0,69,0.00,,,0.03,Wunderground v.1.15,2013-03-08 17:54:00,
2013-03-08 11:55:00,40.1,30.7,30.43,SE,139,7.0,8.0,69,0.00,,,0.03,Wunderground v.1.15,2013-03-08 17:55:00,
2013-03-08 11:57:00,40.1,30.7,30.43,South,177,7.0,10.0,69,0.00,,,0.03,Wunderground v.1.15,2013-03-08 17:57:00,
2013-03-08 11:58:00,40.1,30.7,30.43,SSE,160,7.0,10.0,69,0.00,,,0.03,Wunderground v.1.15,2013-03-08 17:58:00,
2013-03-08 12:01:00,40.2,30.8,30.43,South,186,8.0,8.0,69,0.00,,,0.03,Wunderground v.1.15,2013-03-08 18:01:00,
2013-03-08 12:03:00,40.1,30.7,30.42,SSE,153,8.0,9.0,69,0.00,,,0.03,Wunderground v.1.15,2013-03-08 18:03:00,
2013-03-08 12:06:00,40.0,30.6,30.42,SSE,148,8.0,14.0,69,0.00,,,0.03,Wunderground v.1.15,2013-03-08 18:06:00,
2013-03-08 12:07:00,40.0,30.6,30.42,SSE,160,8.0,14.0,69,0.00,,,0.03,Wunderground v.1.15,2013-03-08 18:07:00,
2013-03-08 12:09:00,40.0,30.6,30.42,SE,144,8.0,14.0,69,0.00,,,0.03,Wunderground v.1.15,2013-03-08 18:09:00,
2013-03-08 12:11:00,40.1,30.7,30.41,SE,136,8.0,8.0,69,0.00,,,0.03,Wunderground v.1.15,2013-03-08 18:11:00,
2013-03-08 12:12:00,40.2,30.8,30.41,SSE,158,7.0,8.0,69,0.00,,,0.03,Wunderground v.1.15,2013-03-08 18:12:00,
2013-03-08 12:14:00,40.2,30.8,30.42,SSE,163,8.0,8.0,69,0.00,,,0.03,Wunderground v.1.15,2013-03-08 18:14:00,
2013-03-08 12:16:00,40.3,30.9,30.42,SE,125,7.0,8.0,69,0.00,,,0.03,Wunderground v.1.15,2013-03-08 18:16:00,
2013-03-08 12:17:00,40.2,30.8,30.41,East,91,7.0,11.0,69,0.00,,,0.03,Wunderground v.1.15,2013-03-08 18:17:00,
2013-03-08 12:19:00,40.1,30.7,30.41,SE,134,7.0,11.0,69,0.00,,,0.03,Wunderground v.1.15,2013-03-08 18:19:00,
2013-03-08 12:21:00,40.1,30.7,30.41,SE,131,7.0,7.0,69,0.00,,,0.03,Wunderground v.1.15,2013-03-08 18:21:00,
2013-03-08 12:23:00,40.1,30.7,30.41,SSE,159,8.0,12.0,69,0.00,,,0.03,Wunderground v.1.15,2013-03-08 18:23:00,
2013-03-08 12:26:00,40.1,31.1,30.41,SE,141,8.0,12.0,70,0.00,,,0.03,Wunderground v.1.15,2013-03-08 18:26:00,
2013-03-08 12:28:00,40.2,31.2,30.41,ESE,111,7.0,12.0,70,0.00,,,0.03,Wunderground v.1.15,2013-03-08 18:28:00,
2013-03-08 12:31:00,40.3,31.3,30.41,ESE,117,7.0,7.0,70,0.00,,,0.03,Wunderground v.1.15,2013-03-08 18:31:00,
2013-03-08 12:32:00,40.3,30.9,30.40,ESE,114,7.0,10.0,69,0.00,,,0.03,Wunderground v.1.15,2013-03-08 18:32:00,
2013-03-08 12:34:00,40.3,30.9,30.40,NE,53,7.0,10.0,69,0.00,,,0.03,Wunderground v.1.15,2013-03-08 18:34:00,
2013-03-08 12:36:00,40.3,30.9,30.40,SE,140,7.0,10.0,69,0.00,,,0.03,Wunderground v.1.15,2013-03-08 18:36:00,
2013-03-08 12:37:00,40.3,30.9,30.40,ESE,117,7.0,10.0,69,0.00,,,0.03,Wunderground v.1.15,2013-03-08 18:37:00,
2013-03-08 12:40:00,40.3,30.9,30.40,ESE,115,7.0,10.0,69,0.00,,,0.03,Wunderground v.1.15,2013-03-08 18:40:00,
2013-03-08 12:42:00,40.3,30.9,30.40,ESE,120,7.0,10.0,69,0.00,,,0.03,Wunderground v.1.15,2013-03-08 18:42:00,
2013-03-08 12:46:00,40.5,31.1,30.40,SE,140,7.0,10.0,69,0.00,,,0.03,Wunderground v.1.15,2013-03-08 18:46:00,
2013-03-08 12:50:00,40.6,31.2,30.40,ESE,120,7.0,9.0,69,0.00,,,0.03,Wunderground v.1.15,2013-03-08 18:50:00,
2013-03-08 12:53:00,40.5,31.1,30.40,ESE,121,8.0,9.0,69,0.00,,,0.03,Wunderground v.1.15,2013-03-08 18:53:00,
2013-03-08 12:54:00,40.5,31.5,30.40,ESE,122,8.0,9.0,70,0.00,,,0.03,Wunderground v.1.15,2013-03-08 18:54:00,
2013-03-08 12:58:00,40.6,31.6,30.39,East,95,8.0,12.0,70,0.00,,,0.03,Wunderground v.1.15,2013-03-08 18:58:00,
2013-03-08 13:00:00,40.7,31.7,30.39,SE,141,8.0,8.0,70,0.00,,,0.03,Wunderground v.1.15,2013-03-08 19:00:00,
2013-03-08 13:02:00,40.8,31.8,30.39,ENE,77,8.0,8.0,70,0.00,,,0.03,Wunderground v.1.15,2013-03-08 19:02:00,
2013-03-08 13:06:00,41.1,31.7,30.39,ESE,112,7.0,8.0,69,0.00,,,0.03,Wunderground v.1.15,2013-03-08 19:06:00,
2013-03-08 13:07:00,41.1,31.7,30.39,SE,126,7.0,8.0,69,0.00,,,0.03,Wunderground v.1.15,2013-03-08 19:07:00,
2013-03-08 13:11:00,40.9,31.9,30.39,ESE,106,7.0,7.0,70,0.00,,,0.03,Wunderground v.1.15,2013-03-08 19:11:00,
2013-03-08 13:12:00,40.9,31.9,30.39,ESE,117,7.0,8.0,70,0.00,,,0.03,Wunderground v.1.15,2013-03-08 19:12:00,
2013-03-08 13:15:00,40.8,31.8,30.38,ESE,112,7.0,8.0,70,0.00,,,0.03,Wunderground v.1.15,2013-03-08 19:15:00,
2013-03-08 13:16:00,40.8,31.8,30.38,ESE,110,7.0,8.0,70,0.00,,,0.03,Wunderground v.1.15,2013-03-08 19:16:00,
2013-03-08 13:17:00,40.8,32.1,30.38,SE,127,7.0,8.0,71,0.00,,,0.03,Wunderground v.1.15,2013-03-08 19:17:00,
2013-03-08 13:19:00,40.9,31.9,30.38,ESE,115,7.0,8.0,70,0.00,,,0.03,Wunderground v.1.15,2013-03-08 19:19:00,
2013-03-08 13:21:00,40.9,32.2,30.38,ENE,73,7.0,9.0,71,0.00,,,0.03,Wunderground v.1.15,2013-03-08 19:21:00,
2013-03-08 13:22:00,41.0,32.3,30.38,SE,126,6.0,9.0,71,0.00,,,0.03,Wunderground v.1.15,2013-03-08 19:22:00,
2013-03-08 13:24:00,41.1,32.4,30.38,SSE,148,6.0,9.0,71,0.00,,,0.03,Wunderground v.1.15,2013-03-08 19:24:00,
2013-03-08 13:26:00,41.3,32.2,30.38,ESE,123,6.0,9.0,70,0.00,,,0.03,Wunderground v.1.15,2013-03-08 19:26:00,
2013-03-08 13:28:00,41.3,32.2,30.38,SSE,150,6.0,9.0,70,0.00,,,0.03,Wunderground v.1.15,2013-03-08 19:28:00,
2013-03-08 13:30:00,41.4,32.3,30.38,ESE,102,6.0,6.0,70,0.00,,,0.03,Wunderground v.1.15,2013-03-08 19:30:00,
2013-03-08 13:32:00,41.5,32.8,30.37,East,100,6.0,6.0,71,0.00,,,0.03,Wunderground v.1.15,2013-03-08 19:32:00,
2013-03-08 13:33:00,41.5,32.8,30.37,ESE,122,6.0,6.0,71,0.00,,,0.03,Wunderground v.1.15,2013-03-08 19:33:00,
2013-03-08 13:35:00,41.6,32.5,30.37,ESE,122,6.0,8.0,70,0.00,,,0.03,Wunderground v.1.15,2013-03-08 19:35:00,
2013-03-08 13:36:00,41.7,32.6,30.37,ESE,122,6.0,9.0,70,0.00,,,0.03,Wunderground v.1.15,2013-03-08 19:36:00,
2013-03-08 13:37:00,41.7,32.6,30.37,SE,129,6.0,9.0,70,0.00,,,0.03,Wunderground v.1.15,2013-03-08 19:37:00,
2013-03-08 13:38:00,41.7,32.6,30.37,ESE,120,6.0,9.0,70,0.00,,,0.03,Wunderground v.1.15,2013-03-08 19:38:00,
2013-03-08 13:41:00,41.8,32.7,30.36,East,91,5.0,5.0,70,0.00,,,0.03,Wunderground v.1.15,2013-03-08 19:41:00,
2013-03-08 13:42:00,41.9,32.8,30.36,ENE,63,5.0,7.0,70,0.00,,,0.03,Wunderground v.1.15,2013-03-08 19:42:00,
2013-03-08 13:43:00,41.9,32.8,30.36,ESE,109,5.0,7.0,70,0.00,,,0.03,Wunderground v.1.15,2013-03-08 19:43:00,
2013-03-08 13:45:00,41.9,32.8,30.36,ESE,120,5.0,8.0,70,0.00,,,0.03,Wunderground v.1.15,2013-03-08 19:45:00,
2013-03-08 13:48:00,41.9,32.5,30.35,ENE,77,5.0,8.0,69,0.00,,,0.03,Wunderground v.1.15,2013-03-08 19:48:00,
2013-03-08 13:49:00,42.0,32.9,30.35,East,81,6.0,8.0,70,0.00,,,0.03,Wunderground v.1.15,2013-03-08 19:49:00,
2013-03-08 13:51:00,42.0,32.6,30.36,SE,137,6.0,11.0,69,0.00,,,0.03,Wunderground v.1.15,2013-03-08 19:51:00,
2013-03-08 13:53:00,42.1,33.0,30.36,ESE,117,6.0,11.0,70,0.00,,,0.03,Wunderground v.1.15,2013-03-08 19:53:00,
2013-03-08 13:55:00,42.1,32.7,30.35,ESE,107,6.0,12.0,69,0.00,,,0.03,Wunderground v.1.15,2013-03-08 19:55:00,
2013-03-08 13:57:00,42.2,32.8,30.35,East,89,6.0,12.0,69,0.00,,,0.03,Wunderground v.1.15,2013-03-08 19:57:00,
2013-03-08 14:00:00,42.1,32.7,30.36,SE,127,7.0,7.0,69,0.00,,,0.03,Wunderground v.1.15,2013-03-08 20:00:00,
2013-03-08 14:04:00,42.0,32.6,30.36,ESE,115,8.0,11.0,69,0.00,,,0.03,Wunderground v.1.15,2013-03-08 20:04:00,
2013-03-08 14:05:00,42.0,32.6,30.36,SE,129,8.0,11.0,69,0.00,,,0.03,Wunderground v.1.15,2013-03-08 20:05:00,
2013-03-08 14:07:00,42.1,32.7,30.36,East,89,8.0,11.0,69,0.00,,,0.03,Wunderground v.1.15,2013-03-08 20:07:00,
2013-03-08 14:10:00,42.2,32.8,30.36,ESE,105,7.0,8.0,69,0.00,,,0.03,Wunderground v.1.15,2013-03-08 20:10:00,
2013-03-08 14:12:00,42.2,32.8,30.35,ESE,122,7.0,8.0,69,0.00,,,0.03,Wunderground v.1.15,2013-03-08 20:12:00,
2013-03-08 14:14:00,42.3,32.8,30.36,SE,129,6.0,9.0,69,0.00,,,0.03,Wunderground v.1.15,2013-03-08 20:14:00,
2013-03-08 14:15:00,42.2,32.8,30.36,SE,134,6.0,9.0,69,0.00,,,0.03,Wunderground v.1.15,2013-03-08 20:15:00,
2013-03-08 14:18:00,42.2,33.1,30.35,ESE,123,7.0,9.0,70,0.00,,,0.03,Wunderground v.1.15,2013-03-08 20:18:00,
2013-03-08 14:20:00,42.3,33.2,30.35,East,93,6.0,7.0,70,0.00,,,0.03,Wunderground v.1.15,2013-03-08 20:20:00,
2013-03-08 14:21:00,42.3,33.2,30.36,East,98,6.0,7.0,70,0.00,,,0.03,Wunderground v.1.15,2013-03-08 20:21:00,
2013-03-08 14:23:00,42.4,32.9,30.36,East,92,6.0,7.0,69,0.00,,,0.03,Wunderground v.1.15,2013-03-08 20:23:00,
2013-03-08 14:25:00,42.4,32.9,30.36,ESE,120,6.0,9.0,69,0.00,,,0.03,Wunderground v.1.15,2013-03-08 20:25:00,
2013-03-08 14:29:00,42.5,33.4,30.36,SE,134,5.0,8.0,70,0.00,,,0.03,Wunderground v.1.15,2013-03-08 20:29:00,
2013-03-08 14:31:00,42.4,33.3,30.36,ESE,107,6.0,8.0,70,0.00,,,0.03,Wunderground v.1.15,2013-03-08 20:31:00,
2013-03-08 14:33:00,42.4,33.3,30.36,SE,129,6.0,8.0,70,0.00,,,0.03,Wunderground v.1.15,2013-03-08 20:33:00,
2013-03-08 14:36:00,42.6,33.1,30.35,East,100,6.0,8.0,69,0.00,,,0.03,Wunderground v.1.15,2013-03-08 20:36:00,
2013-03-08 14:38:00,42.7,33.2,30.35,ESE,106,6.0,8.0,69,0.00,,,0.03,Wunderground v.1.15,2013-03-08 20:38:00,
2013-03-08 14:40:00,42.7,33.2,30.36,ESE,120,5.0,8.0,69,0.00,,,0.03,Wunderground v.1.15,2013-03-08 20:40:00,
2013-03-08 14:42:00,42.8,33.3,30.36,ESE,105,6.0,8.0,69,0.00,,,0.03,Wunderground v.1.15,2013-03-08 20:42:00,
2013-03-08 14:44:00,42.9,33.4,30.35,East,86,5.0,8.0,69,0.00,,,0.03,Wunderground v.1.15,2013-03-08 20:44:00,
2013-03-08 14:46:00,42.9,33.4,30.35,ESE,120,5.0,8.0,69,0.00,,,0.03,Wunderground v.1.15,2013-03-08 20:46:00,
2013-03-08 14:47:00,42.9,33.4,30.35,SE,141,5.0,8.0,69,0.00,,,0.03,Wunderground v.1.15,2013-03-08 20:47:00,
2013-03-08 14:49:00,42.9,33.4,30.35,ESE,122,4.0,5.0,69,0.00,,,0.03,Wunderground v.1.15,2013-03-08 20:49:00,
2013-03-08 14:51:00,42.9,33.4,30.35,ESE,110,4.0,6.0,69,0.00,,,0.03,Wunderground v.1.15,2013-03-08 20:51:00,
2013-03-08 14:52:00,42.9,33.4,30.35,ESE,123,4.0,6.0,69,0.00,,,0.03,Wunderground v.1.15,2013-03-08 20:52:00,
2013-03-08 14:53:00,42.9,33.4,30.35,ESE,111,4.0,7.0,69,0.00,,,0.03,Wunderground v.1.15,2013-03-08 20:53:00,
2013-03-08 14:56:00,43.1,33.6,30.35,ESE,119,4.0,9.0,69,0.00,,,0.03,Wunderground v.1.15,2013-03-08 20:56:00,
2013-03-08 14:57:00,43.1,33.6,30.35,ESE,117,5.0,9.0,69,0.00,,,0.03,Wunderground v.1.15,2013-03-08 20:57:00,
2013-03-08 15:00:00,43.1,33.6,30.35,ESE,114,5.0,7.0,69,0.00,,,0.03,Wunderground v.1.15,2013-03-08 21:00:00,
2013-03-08 15:01:00,43.1,33.6,30.35,ESE,114,5.0,7.0,69,0.00,,,0.03,Wunderground v.1.15,2013-03-08 21:01:00,
2013-03-08 15:05:00,43.2,33.7,30.35,East,87,4.0,7.0,69,0.00,,,0.03,Wunderground v.1.15,2013-03-08 21:05:00,
2013-03-08 15:06:00,43.2,33.7,30.35,ESE,107,4.0,7.0,69,0.00,,,0.03,Wunderground v.1.15,2013-03-08 21:06:00,
2013-03-08 15:09:00,43.3,33.8,30.35,ESE,122,4.0,7.0,69,0.00,,,0.03,Wunderground v.1.15,2013-03-08 21:09:00,
2013-03-08 15:11:00,43.3,33.8,30.34,ENE,77,4.0,5.0,69,0.00,,,0.03,Wunderground v.1.15,2013-03-08 21:11:00,
2013-03-08 15:14:00,43.4,33.9,30.34,SE,144,4.0,5.0,69,0.00,,,0.03,Wunderground v.1.15,2013-03-08 21:14:00,
2013-03-08 15:18:00,43.5,34.0,30.34,SE,131,3.0,6.0,69,0.00,,,0.03,Wunderground v.1.15,2013-03-08 21:18:00,
2013-03-08 15:19:00,43.5,34.0,30.34,NE,47,3.0,6.0,69,0.00,,,0.03,Wunderground v.1.15,2013-03-08 21:19:00,
2013-03-08 15:20:00,43.5,34.0,30.34,East,98,3.0,3.0,69,0.00,,,0.03,Wunderground v.1.15,2013-03-08 21:20:00,
2013-03-08 15:23:00,43.4,33.5,30.35,ESE,115,4.0,5.0,68,0.00,,,0.03,Wunderground v.1.15,2013-03-08 21:23:00,
2013-03-08 15:25:00,43.3,33.8,30.35,ESE,107,4.0,5.0,69,0.00,,,0.03,Wunderground v.1.15,2013-03-08 21:25:00,
2013-03-08 15:26:00,43.2,33.7,30.35,SE,127,4.0,6.0,69,0.00,,,0.03,Wunderground v.1.15,2013-03-08 21:26:00,
2013-03-08 15:30:00,43.3,33.8,30.35,ESE,120,5.0,6.0,69,0.00,,,0.03,Wunderground v.1.15,2013-03-08 21:30:00,
2013-03-08 15:31:00,43.4,33.9,30.35,ENE,61,5.0,6.0,69,0.00,,,0.03,Wunderground v.1.15,2013-03-08 21:31:00,
2013-03-08 15:32:00,43.3,33.8,30.34,East,98,5.0,9.0,69,0.00,,,0.03,Wunderground v.1.15,2013-03-08 21:32:00,
2013-03-08 15:35:00,43.4,33.9,30.35,ESE,105,5.0,9.0,69,0.00,,,0.03,Wunderground v.1.15,2013-03-08 21:35:00,
2013-03-08 15:36:00,43.4,33.9,30.34,SE,129,5.0,9.0,69,0.00,,,0.03,Wunderground v.1.15,2013-03-08 21:36:00,
2013-03-08 15:38:00,43.4,33.9,30.35,ESE,117,4.0,9.0,69,0.00,,,0.03,Wunderground v.1.15,2013-03-08 21:38:00,
2013-03-08 15:41:00,43.5,34.0,30.35,SE,141,4.0,5.0,69,0.00,,,0.03,Wunderground v.1.15,2013-03-08 21:41:00,
2013-03-08 15:42:00,43.5,34.0,30.35,East,98,4.0,5.0,69,0.00,,,0.03,Wunderground v.1.15,2013-03-08 21:42:00,
2013-03-08 15:43:00,43.4,33.9,30.35,ESE,120,4.0,8.0,69,0.00,,,0.03,Wunderground v.1.15,2013-03-08 21:43:00,
2013-03-08 15:44:00,43.4,33.9,30.35,ESE,119,4.0,8.0,69,0.00,,,0.03,Wunderground v.1.15,2013-03-08 21:44:00,
2013-03-08 15:47:00,43.3,34.2,30.35,East,84,4.0,8.0,70,0.00,,,0.03,Wunderground v.1.15,2013-03-08 21:47:00,
2013-03-08 15:51:00,43.4,34.3,30.35,ENE,72,4.0,4.0,70,0.00,,,0.03,Wunderground v.1.15,2013-03-08 21:51:00,
2013-03-08 15:52:00,43.4,34.3,30.35,ENE,61,3.0,4.0,70,0.00,,,0.03,Wunderground v.1.15,2013-03-08 21:52:00,
2013-03-08 15:53:00,43.4,34.3,30.35,ENE,70,3.0,4.0,70,0.00,,,0.03,Wunderground v.1.15,2013-03-08 21:53:00,
2013-03-08 15:54:00,43.4,34.3,30.35,ENE,77,3.0,4.0,70,0.00,,,0.03,Wunderground v.1.15,2013-03-08 21:54:00,
2013-03-08 15:56:00,43.3,34.2,30.34,East,95,2.0,4.0,70,0.00,,,0.03,Wunderground v.1.15,2013-03-08 21:56:00,
2013-03-08 16:00:00,43.1,34.0,30.34,ESE,113,2.0,2.0,70,0.00,,,0.03,Wunderground v.1.15,2013-03-08 22:00:00,
2013-03-08 16:01:00,43.1,34.0,30.34,NE,56,2.0,2.0,70,0.00,,,0.03,Wunderground v.1.15,2013-03-08 22:01:00,
2013-03-08 16:02:00,43.0,34.2,30.34,ENE,75,2.0,2.0,71,0.00,,,0.03,Wunderground v.1.15,2013-03-08 22:02:00,
2013-03-08 16:06:00,42.9,34.1,30.34,ENE,70,1.0,2.0,71,0.00,,,0.03,Wunderground v.1.15,2013-03-08 22:06:00,
2013-03-08 16:08:00,42.8,34.0,30.34,ENE,66,1.0,2.0,71,0.00,,,0.03,Wunderground v.1.15,2013-03-08 22:08:00,
2013-03-08 16:09:00,42.9,34.1,30.34,SE,125,1.0,1.0,71,0.00,,,0.03,Wunderground v.1.15,2013-03-08 22:09:00,
2013-03-08 16:12:00,42.9,34.1,30.34,ESE,108,1.0,1.0,71,0.00,,,0.03,Wunderground v.1.15,2013-03-08 22:12:00,
2013-03-08 16:15:00,42.9,34.1,30.35,SE,127,1.0,1.0,71,0.00,,,0.03,Wunderground v.1.15,2013-03-08 22:15:00,
2013-03-08 16:16:00,42.8,34.0,30.35,ESE,106,1.0,1.0,71,0.00,,,0.03,Wunderground v.1.15,2013-03-08 22:16:00,
2013-03-08 16:18:00,42.7,34.3,30.35,ESE,114,1.0,4.0,72,0.00,,,0.03,Wunderground v.1.15,2013-03-08 22:18:00,
2013-03-08 16:21:00,42.6,34.2,30.35,ESE,106,2.0,3.0,72,0.00,,,0.03,Wunderground v.1.15,2013-03-08 22:21:00,
2013-03-08 16:23:00,42.5,34.1,30.35,East,96,2.0,3.0,72,0.00,,,0.03,Wunderground v.1.15,2013-03-08 22:23:00,
2013-03-08 16:25:00,42.5,34.1,30.34,ESE,107,2.0,3.0,72,0.00,,,0.03,Wunderground v.1.15,2013-03-08 22:25:00,
2013-03-08 16:28:00,42.5,34.1,30.34,ENE,65,3.0,3.0,72,0.00,,,0.03,Wunderground v.1.15,2013-03-08 22:28:00,
2013-03-08 16:29:00,42.5,34.1,30.34,ENE,77,2.0,3.0,72,0.00,,,0.03,Wunderground v.1.15,2013-03-08 22:29:00,
2013-03-08 16:32:00,42.5,34.5,30.35,ESE,122,2.0,4.0,73,0.00,,,0.03,Wunderground v.1.15,2013-03-08 22:32:00,
2013-03-08 16:33:00,42.5,34.1,30.34,ESE,115,2.0,4.0,72,0.00,,,0.03,Wunderground v.1.15,2013-03-08 22:33:00,
2013-03-08 16:35:00,42.5,34.5,30.35,SE,125,3.0,4.0,73,0.00,,,0.03,Wunderground v.1.15,2013-03-08 22:35:00,
2013-03-08 16:37:00,42.6,34.5,30.34,East,90,2.0,4.0,73,0.00,,,0.03,Wunderground v.1.15,2013-03-08 22:37:00,
2013-03-08 16:39:00,42.6,34.5,30.34,East,99,2.0,4.0,73,0.00,,,0.03,Wunderground v.1.15,2013-03-08 22:39:00,
2013-03-08 16:40:00,42.6,34.2,30.34,ESE,107,2.0,2.0,72,0.00,,,0.03,Wunderground v.1.15,2013-03-08 22:40:00,
2013-03-08 16:44:00,42.5,34.5,30.35,ESE,111,2.0,4.0,73,0.00,,,0.03,Wunderground v.1.15,2013-03-08 22:44:00,
2013-03-08 16:45:00,42.4,34.4,30.35,ESE,122,2.0,4.0,73,0.00,,,0.03,Wunderground v.1.15,2013-03-08 22:45:00,
2013-03-08 16:46:00,42.4,34.4,30.35,SE,127,3.0,4.0,73,0.00,,,0.03,Wunderground v.1.15,2013-03-08 22:46:00,
2013-03-08 16:47:00,42.3,34.3,30.35,ESE,104,3.0,4.0,73,0.00,,,0.03,Wunderground v.1.15,2013-03-08 22:47:00,
2013-03-08 16:49:00,42.3,34.3,30.35,ESE,120,3.0,4.0,73,0.00,,,0.03,Wunderground v.1.15,2013-03-08 22:49:00,
2013-03-08 16:52:00,42.3,34.3,30.35,ESE,111,3.0,3.0,73,0.00,,,0.03,Wunderground v.1.15,2013-03-08 22:52:00,
2013-03-08 16:54:00,42.3,34.3,30.35,SE,134,3.0,4.0,73,0.00,,,0.03,Wunderground v.1.15,2013-03-08 22:54:00,
2013-03-08 16:56:00,42.3,34.3,30.35,ESE,110,3.0,4.0,73,0.00,,,0.03,Wunderground v.1.15,2013-03-08 22:56:00,
2013-03-08 16:57:00,42.3,34.3,30.35,ESE,120,2.0,4.0,73,0.00,,,0.03,Wunderground v.1.15,2013-03-08 22:57:00,
2013-03-08 16:58:00,42.3,34.3,30.35,ESE,111,2.0,4.0,73,0.00,,,0.03,Wunderground v.1.15,2013-03-08 22:58:00,
2013-03-08 17:00:00,42.3,34.3,30.35,ENE,77,2.0,2.0,73,0.00,,,0.03,Wunderground v.1.15,2013-03-08 23:00:00,
2013-03-08 17:01:00,42.3,34.3,30.35,ENE,77,2.0,2.0,73,0.00,,,0.03,Wunderground v.1.15,2013-03-08 23:01:00,
2013-03-08 17:04:00,42.3,34.3,30.35,ESE,109,2.0,3.0,73,0.00,,,0.03,Wunderground v.1.15,2013-03-08 23:04:00,
2013-03-08 17:05:00,42.3,34.3,30.35,ESE,112,2.0,4.0,73,0.00,,,0.03,Wunderground v.1.15,2013-03-08 23:05:00,
2013-03-08 17:09:00,42.1,34.1,30.35,ENE,62,2.0,4.0,73,0.00,,,0.03,Wunderground v.1.15,2013-03-08 23:09:00,
2013-03-08 17:10:00,42.0,34.0,30.35,SE,129,2.0,5.0,73,0.00,,,0.03,Wunderground v.1.15,2013-03-08 23:10:00,
2013-03-08 17:11:00,41.9,34.2,30.35,ESE,110,2.0,5.0,74,0.00,,,0.03,Wunderground v.1.15,2013-03-08 23:11:00,
2013-03-08 17:15:00,41.6,33.9,30.35,SE,127,3.0,6.0,74,0.00,,,0.03,Wunderground v.1.15,2013-03-08 23:15:00,
2013-03-08 17:16:00,41.6,33.9,30.35,ESE,123,2.0,6.0,74,0.00,,,0.03,Wunderground v.1.15,2013-03-08 23:16:00,
2013-03-08 17:18:00,41.4,34.1,30.35,SE,126,2.0,6.0,75,0.00,,,0.03,Wunderground v.1.15,2013-03-08 23:18:00,
2013-03-08 17:19:00,41.4,34.1,30.35,ESE,110,2.0,6.0,75,0.00,,,0.03,Wunderground v.1.15,2013-03-08 23:19:00,
2013-03-08 17:20:00,41.3,34.0,30.35,SE,130,2.0,2.0,75,0.00,,,0.03,Wunderground v.1.15,2013-03-08 23:20:00,
2013-03-08 17:21:00,41.2,33.9,30.35,ESE,108,2.0,2.0,75,0.00,,,0.03,Wunderground v.1.15,2013-03-08 23:21:00,
2013-03-08 17:25:00,41.0,33.7,30.35,SE,125,1.0,2.0,75,0.00,,,0.03,Wunderground v.1.15,2013-03-08 23:25:00,
2013-03-08 17:26:00,40.9,33.6,30.35,ESE,102,1.0,2.0,75,0.00,,,0.03,Wunderground v.1.15,2013-03-08 23:26:00,
2013-03-08 17:28:00,40.8,33.8,30.35,ENE,75,1.0,2.0,76,0.00,,,0.03,Wunderground v.1.15,2013-03-08 23:28:00,
2013-03-08 17:29:00,40.7,33.7,30.35,ENE,75,1.0,2.0,76,0.00,,,0.03,Wunderground v.1.15,2013-03-08 23:29:00,
2013-03-08 17:32:00,40.5,33.5,30.35,SE,133,1.0,4.0,76,0.00,,,0.03,Wunderground v.1.15,2013-03-08 23:32:00,
2013-03-08 17:34:00,40.4,33.4,30.35,ESE,119,0.0,4.0,76,0.00,,,0.03,Wunderground v.1.15,2013-03-08 23:34:00,
2013-03-08 17:35:00,40.4,33.8,30.35,East,92,1.0,4.0,77,0.00,,,0.03,Wunderground v.1.15,2013-03-08 23:35:00,
2013-03-08 17:37:00,40.2,33.6,30.35,East,91,1.0,4.0,77,0.00,,,0.03,Wunderground v.1.15,2013-03-08 23:37:00,
2013-03-08 17:40:00,40.1,33.5,30.35,East,99,1.0,1.0,77,0.00,,,0.03,Wunderground v.1.15,2013-03-08 23:40:00,
2013-03-08 17:42:00,40.0,33.4,30.35,East,84,1.0,1.0,77,0.00,,,0.03,Wunderground v.1.15,2013-03-08 23:42:00,
2013-03-08 17:43:00,40.0,33.4,30.35,East,93,1.0,1.0,77,0.00,,,0.03,Wunderground v.1.15,2013-03-08 23:43:00,
2013-03-08 17:45:00,39.9,33.6,30.35,East,93,1.0,1.0,78,0.00,,,0.03,Wunderground v.1.15,2013-03-08 23:45:00,
2013-03-08 17:47:00,39.8,33.5,30.35,ENE,77,1.0,1.0,78,0.00,,,0.03,Wunderground v.1.15,2013-03-08 23:47:00,
2013-03-08 17:49:00,39.7,33.4,30.35,ENE,70,1.0,3.0,78,0.00,,,0.03,Wunderground v.1.15,2013-03-08 23:49:00,
2013-03-08 17:50:00,39.6,33.3,30.35,ESE,110,1.0,2.0,78,0.00,,,0.03,Wunderground v.1.15,2013-03-08 23:50:00,
2013-03-08 17:51:00,39.6,33.3,30.35,ENE,64,1.0,2.0,78,0.00,,,0.03,Wunderground v.1.15,2013-03-08 23:51:00,
2013-03-08 17:52:00,39.5,33.2,30.35,ENE,63,1.0,2.0,78,0.00,,,0.03,Wunderground v.1.15,2013-03-08 23:52:00,
2013-03-08 17:54:00,39.3,33.3,30.35,ENE,78,1.0,2.0,79,0.00,,,0.03,Wunderground v.1.15,2013-03-08 23:54:00,
2013-03-08 17:55:00,39.3,33.3,30.35,ENE,73,1.0,2.0,79,0.00,,,0.03,Wunderground v.1.15,2013-03-08 23:55:00,
2013-03-08 17:56:00,39.3,33.3,30.35,ENE,71,1.0,2.0,79,0.00,,,0.03,Wunderground v.1.15,2013-03-08 23:56:00,
2013-03-08 17:59:00,39.3,33.3,30.35,East,92,1.0,5.0,79,0.00,,,0.03,Wunderground v.1.15,2013-03-08 23:59:00,
2013-03-08 18:00:00,39.2,33.2,30.35,East,79,1.0,1.0,79,0.00,,,0.03,Wunderground v.1.15,2013-03-09 00:00:00,
2013-03-08 18:05:00,39.1,33.1,30.35,East,86,1.0,2.0,79,0.00,,,0.03,Wunderground v.1.15,2013-03-09 00:05:00,
2013-03-08 18:08:00,38.9,33.3,30.35,ESE,115,1.0,2.0,80,0.00,,,0.03,Wunderground v.1.15,2013-03-09 00:08:00,
2013-03-08 18:09:00,38.9,33.3,30.35,East,85,1.0,3.0,80,0.00,,,0.03,Wunderground v.1.15,2013-03-09 00:09:00,
2013-03-08 18:11:00,38.9,33.3,30.35,East,95,1.0,1.0,80,0.00,,,0.03,Wunderground v.1.15,2013-03-09 00:11:00,
2013-03-08 18:15:00,38.8,33.2,30.35,ENE,75,1.0,2.0,80,0.00,,,0.03,Wunderground v.1.15,2013-03-09 00:15:00,
2013-03-08 18:16:00,38.8,33.2,30.35,East,79,1.0,2.0,80,0.00,,,0.03,Wunderground v.1.15,2013-03-09 00:16:00,
2013-03-08 18:18:00,38.7,33.1,30.34,ENE,70,1.0,2.0,80,0.00,,,0.03,Wunderground v.1.15,2013-03-09 00:18:00,
2013-03-08 18:19:00,38.7,33.1,30.34,NE,53,1.0,2.0,80,0.00,,,0.03,Wunderground v.1.15,2013-03-09 00:19:00,
2013-03-08 18:20:00,38.7,33.1,30.34,ENE,72,1.0,3.0,80,0.00,,,0.03,Wunderground v.1.15,2013-03-09 00:20:00,
2013-03-08 18:24:00,38.6,33.3,30.34,NE,49,1.0,4.0,81,0.00,,,0.03,Wunderground v.1.15,2013-03-09 00:24:00,
2013-03-08 18:25:00,38.6,33.3,30.34,East,81,1.0,4.0,81,0.00,,,0.03,Wunderground v.1.15,2013-03-09 00:25:00,
2013-03-08 18:26:00,38.5,33.2,30.34,East,93,1.0,4.0,81,0.00,,,0.03,Wunderground v.1.15,2013-03-09 00:26:00,
2013-03-08 18:28:00,38.4,33.1,30.34,East,90,2.0,4.0,81,0.00,,,0.03,Wunderground v.1.15,2013-03-09 00:28:00,
2013-03-08 18:29:00,38.4,33.1,30.34,ENE,68,2.0,4.0,81,0.00,,,0.03,Wunderground v.1.15,2013-03-09 00:29:00,
2013-03-08 18:32:00,38.4,33.1,30.34,ESE,108,2.0,3.0,81,0.00,,,0.03,Wunderground v.1.15,2013-03-09 00:32:00,
2013-03-08 18:34:00,38.4,33.1,30.34,East,89,1.0,3.0,81,0.00,,,0.03,Wunderground v.1.15,2013-03-09 00:34:00,
2013-03-08 18:35:00,38.4,33.1,30.34,ENE,65,1.0,3.0,81,0.00,,,0.03,Wunderground v.1.15,2013-03-09 00:35:00,
2013-03-08 18:38:00,38.4,33.1,30.34,NE,56,1.0,3.0,81,0.00,,,0.03,Wunderground v.1.15,2013-03-09 00:38:00,
2013-03-08 18:40:00,38.4,33.1,30.34,ESE,117,1.0,1.0,81,0.00,,,0.03,Wunderground v.1.15,2013-03-09 00:40:00,
2013-03-08 18:41:00,38.4,33.4,30.34,ENE,60,1.0,1.0,82,0.00,,,0.03,Wunderground v.1.15,2013-03-09 00:41:00,
2013-03-08 18:42:00,38.4,33.1,30.34,East,93,1.0,1.0,81,0.00,,,0.03,Wunderground v.1.15,2013-03-09 00:42:00,
2013-03-08 18:43:00,38.4,33.1,30.34,ESE,103,1.0,6.0,81,0.00,,,0.03,Wunderground v.1.15,2013-03-09 00:43:00,
2013-03-08 18:46:00,38.4,33.1,30.34,ENE,77,1.0,6.0,81,0.00,,,0.03,Wunderground v.1.15,2013-03-09 00:46:00,
2013-03-08 18:47:00,38.4,33.1,30.34,ENE,74,1.0,6.0,81,0.00,,,0.03,Wunderground v.1.15,2013-03-09 00:47:00,
2013-03-08 18:48:00,38.3,33.0,30.34,East,98,1.0,6.0,81,0.00,,,0.03,Wunderground v.1.15,2013-03-09 00:48:00,
2013-03-08 18:49:00,38.3,33.0,30.34,ENE,74,1.0,6.0,81,0.00,,,0.03,Wunderground v.1.15,2013-03-09 00:49:00,
2013-03-08 18:51:00,38.2,32.9,30.34,ENE,58,1.0,1.0,81,0.00,,,0.03,Wunderground v.1.15,2013-03-09 00:51:00,
2013-03-08 18:52:00,38.1,32.8,30.34,NE,53,1.0,1.0,81,0.00,,,0.03,Wunderground v.1.15,2013-03-09 00:52:00,
2013-03-08 18:55:00,37.8,32.5,30.34,ENE,74,0.0,1.0,81,0.00,,,0.03,Wunderground v.1.15,2013-03-09 00:55:00,
2013-03-08 18:56:00,37.7,32.7,30.34,NE,46,0.0,1.0,82,0.00,,,0.03,Wunderground v.1.15,2013-03-09 00:56:00,
2013-03-08 18:57:00,37.6,32.6,30.34,ENE,68,0.0,1.0,82,0.00,,,0.03,Wunderground v.1.15,2013-03-09 00:57:00,
2013-03-08 18:59:00,37.4,32.4,30.34,East,88,0.0,1.0,82,0.00,,,0.03,Wunderground v.1.15,2013-03-09 00:59:00,
2013-03-08 19:00:00,37.3,32.3,30.34,East,90,0.0,2.0,82,0.00,,,0.03,Wunderground v.1.15,2013-03-09 01:00:00,
2013-03-08 19:03:00,37.1,32.4,30.34,ENE,77,0.0,2.0,83,0.00,,,0.03,Wunderground v.1.15,2013-03-09 01:03:00,
2013-03-08 19:05:00,37.1,32.4,30.34,ENE,70,0.0,2.0,83,0.00,,,0.03,Wunderground v.1.15,2013-03-09 01:05:00,
2013-03-08 19:07:00,37.0,32.3,30.34,ENE,77,0.0,2.0,83,0.00,,,0.03,Wunderground v.1.15,2013-03-09 01:07:00,
2013-03-08 19:09:00,36.9,32.5,30.33,East,84,0.0,2.0,84,0.00,,,0.03,Wunderground v.1.15,2013-03-09 01:09:00,
2013-03-08 19:10:00,36.9,32.5,30.34,NE,49,0.0,0.0,84,0.00,,,0.03,Wunderground v.1.15,2013-03-09 01:10:00,
2013-03-08 19:11:00,36.9,32.5,30.34,ENE,68,0.0,0.0,84,0.00,,,0.03,Wunderground v.1.15,2013-03-09 01:11:00,
2013-03-08 19:12:00,36.8,32.4,30.34,ENE,77,0.0,1.0,84,0.00,,,0.03,Wunderground v.1.15,2013-03-09 01:12:00,
2013-03-08 19:14:00,36.7,32.3,30.33,ENE,74,0.0,1.0,84,0.00,,,0.03,Wunderground v.1.15,2013-03-09 01:14:00,
2013-03-08 19:16:00,36.7,32.3,30.33,ENE,74,0.0,1.0,84,0.00,,,0.03,Wunderground v.1.15,2013-03-09 01:16:00,
2013-03-08 19:18:00,36.7,32.3,30.33,ENE,72,0.0,1.0,84,0.00,,,0.03,Wunderground v.1.15,2013-03-09 01:18:00,
2013-03-08 19:19:00,36.6,32.5,30.33,East,89,0.0,1.0,85,0.00,,,0.03,Wunderground v.1.15,2013-03-09 01:19:00,
2013-03-08 19:21:00,36.6,32.5,30.33,East,79,0.0,1.0,85,0.00,,,0.03,Wunderground v.1.15,2013-03-09 01:21:00,
2013-03-08 19:23:00,36.6,32.5,30.33,East,96,0.0,2.0,85,0.00,,,0.03,Wunderground v.1.15,2013-03-09 01:23:00,
2013-03-08 19:24:00,36.6,32.5,30.33,ENE,70,0.0,2.0,85,0.00,,,0.03,Wunderground v.1.15,2013-03-09 01:24:00,
2013-03-08 19:27:00,36.7,32.6,30.33,ENE,70,1.0,2.0,85,0.00,,,0.03,Wunderground v.1.15,2013-03-09 01:27:00,
2013-03-08 19:29:00,36.7,32.6,30.33,ESE,110,1.0,2.0,85,0.00,,,0.03,Wunderground v.1.15,2013-03-09 01:29:00,
2013-03-08 19:30:00,36.7,32.6,30.33,ESE,105,1.0,1.0,85,0.00,,,0.03,Wunderground v.1.15,2013-03-09 01:30:00,
2013-03-08 19:31:00,36.7,32.6,30.33,East,81,1.0,1.0,85,0.00,,,0.03,Wunderground v.1.15,2013-03-09 01:31:00,
2013-03-08 19:34:00,36.7,32.6,30.33,ESE,112,1.0,2.0,85,0.00,,,0.03,Wunderground v.1.15,2013-03-09 01:34:00,
2013-03-08 19:35:00,36.7,32.6,30.33,ESE,102,1.0,2.0,85,0.00,,,0.03,Wunderground v.1.15,2013-03-09 01:35:00,
2013-03-08 19:36:00,36.8,32.7,30.33,ENE,72,1.0,2.0,85,0.00,,,0.03,Wunderground v.1.15,2013-03-09 01:36:00,
2013-03-08 19:37:00,36.8,32.7,30.33,East,96,1.0,2.0,85,0.00,,,0.03,Wunderground v.1.15,2013-03-09 01:37:00,
2013-03-08 19:40:00,36.8,32.7,30.33,ESE,108,1.0,1.0,85,0.00,,,0.03,Wunderground v.1.15,2013-03-09 01:40:00,
2013-03-08 19:42:00,36.8,32.7,30.33,ENE,72,0.0,3.0,85,0.00,,,0.03,Wunderground v.1.15,2013-03-09 01:42:00,
2013-03-08 19:44:00,36.8,32.7,30.33,East,79,1.0,3.0,85,0.00,,,0.03,Wunderground v.1.15,2013-03-09 01:44:00,
2013-03-08 19:46:00,36.9,32.8,30.33,ENE,77,0.0,3.0,85,0.00,,,0.03,Wunderground v.1.15,2013-03-09 01:46:00,
2013-03-08 19:47:00,36.9,32.8,30.33,East,85,0.0,3.0,85,0.00,,,0.03,Wunderground v.1.15,2013-03-09 01:47:00,
2013-03-08 19:50:00,36.9,32.8,30.33,East,86,0.0,0.0,85,0.00,,,0.03,Wunderground v.1.15,2013-03-09 01:50:00,
2013-03-08 19:51:00,36.9,32.8,30.33,ESE,119,0.0,0.0,85,0.00,,,0.03,Wunderground v.1.15,2013-03-09 01:51:00,
2013-03-08 19:52:00,36.9,32.8,30.33,ESE,103,0.0,0.0,85,0.00,,,0.03,Wunderground v.1.15,2013-03-09 01:52:00,
2013-03-08 19:55:00,36.9,32.8,30.33,ENE,65,1.0,2.0,85,0.00,,,0.03,Wunderground v.1.15,2013-03-09 01:55:00,
2013-03-08 19:56:00,36.9,32.8,30.32,East,96,1.0,3.0,85,0.00,,,0.03,Wunderground v.1.15,2013-03-09 01:56:00,
2013-03-08 19:58:00,37.0,32.9,30.32,East,81,1.0,3.0,85,0.00,,,0.03,Wunderground v.1.15,2013-03-09 01:58:00,
2013-03-08 20:01:00,37.0,32.9,30.32,ENE,72,1.0,1.0,85,0.00,,,0.03,Wunderground v.1.15,2013-03-09 02:01:00,
2013-03-08 20:03:00,37.0,32.9,30.32,ESE,110,0.0,1.0,85,0.00,,,0.03,Wunderground v.1.15,2013-03-09 02:03:00,
2013-03-08 20:05:00,37.0,32.9,30.32,ENE,77,0.0,1.0,85,0.00,,,0.03,Wunderground v.1.15,2013-03-09 02:05:00,
2013-03-08 20:07:00,37.0,32.9,30.32,East,90,0.0,1.0,85,0.00,,,0.03,Wunderground v.1.15,2013-03-09 02:07:00,
2013-03-08 20:11:00,37.0,32.9,30.31,ESE,113,0.0,0.0,85,0.00,,,0.03,Wunderground v.1.15,2013-03-09 02:11:00,
2013-03-08 20:12:00,36.9,32.8,30.32,ENE,74,0.0,0.0,85,0.00,,,0.03,Wunderground v.1.15,2013-03-09 02:12:00,
2013-03-08 20:13:00,36.9,32.8,30.31,ENE,60,0.0,0.0,85,0.00,,,0.03,Wunderground v.1.15,2013-03-09 02:13:00,
2013-03-08 20:17:00,37.0,32.9,30.31,ENE,60,1.0,2.0,85,0.00,,,0.03,Wunderground v.1.15,2013-03-09 02:17:00,
2013-03-08 20:18:00,37.0,32.9,30.31,ENE,72,1.0,2.0,85,0.00,,,0.03,Wunderground v.1.15,2013-03-09 02:18:00,
2013-03-08 20:20:00,36.9,32.8,30.31,East,86,1.0,2.0,85,0.00,,,0.03,Wunderground v.1.15,2013-03-09 02:20:00,
2013-03-08 20:21:00,36.9,32.8,30.31,ENE,63,1.0,2.0,85,0.00,,,0.03,Wunderground v.1.15,2013-03-09 02:21:00,
2013-03-08 20:23:00,36.9,32.8,30.31,ESE,105,1.0,2.0,85,0.00,,,0.03,Wunderground v.1.15,2013-03-09 02:23:00,
2013-03-08 20:24:00,36.9,32.8,30.31,East,90,1.0,2.0,85,0.00,,,0.03,Wunderground v.1.15,2013-03-09 02:24:00,
2013-03-08 20:25:00,36.9,32.8,30.31,ENE,74,0.0,2.0,85,0.00,,,0.03,Wunderground v.1.15,2013-03-09 02:25:00,
2013-03-08 20:30:00,36.9,32.8,30.31,East,80,1.0,1.0,85,0.00,,,0.03,Wunderground v.1.15,2013-03-09 02:30:00,
2013-03-08 20:31:00,36.9,32.8,30.31,East,88,1.0,2.0,85,0.00,,,0.03,Wunderground v.1.15,2013-03-09 02:31:00,
2013-03-08 20:32:00,36.9,32.8,30.31,ESE,118,1.0,2.0,85,0.00,,,0.03,Wunderground v.1.15,2013-03-09 02:32:00,
2013-03-08 20:34:00,37.0,32.9,30.31,ESE,113,1.0,2.0,85,0.00,,,0.03,Wunderground v.1.15,2013-03-09 02:34:00,
2013-03-08 20:38:00,37.0,32.9,30.30,ESE,117,1.0,2.0,85,0.00,,,0.03,Wunderground v.1.15,2013-03-09 02:38:00,
2013-03-08 20:39:00,37.0,32.9,30.30,ENE,75,1.0,1.0,85,0.00,,,0.03,Wunderground v.1.15,2013-03-09 02:39:00,
2013-03-08 20:40:00,37.0,32.9,30.30,ESE,103,1.0,2.0,85,0.00,,,0.03,Wunderground v.1.15,2013-03-09 02:40:00,
2013-03-08 20:42:00,37.0,32.9,30.30,ESE,113,1.0,2.0,85,0.00,,,0.03,Wunderground v.1.15,2013-03-09 02:42:00,
2013-03-08 20:43:00,37.1,33.0,30.30,ENE,64,1.0,2.0,85,0.00,,,0.03,Wunderground v.1.15,2013-03-09 02:43:00,
2013-03-08 20:44:00,37.1,33.0,30.31,ENE,66,1.0,2.0,85,0.00,,,0.03,Wunderground v.1.15,2013-03-09 02:44:00,
2013-03-08 20:47:00,37.1,33.0,30.30,East,88,1.0,3.0,85,0.00,,,0.03,Wunderground v.1.15,2013-03-09 02:47:00,
2013-03-08 20:48:00,37.1,33.0,30.30,ESE,102,1.0,3.0,85,0.00,,,0.03,Wunderground v.1.15,2013-03-09 02:48:00,
2013-03-08 20:49:00,37.1,33.0,30.30,ESE,105,1.0,1.0,85,0.00,,,0.03,Wunderground v.1.15,2013-03-09 02:49:00,
2013-03-08 20:53:00,37.2,33.1,30.30,ESE,105,1.0,1.0,85,0.00,,,0.03,Wunderground v.1.15,2013-03-09 02:53:00,
2013-03-08 20:55:00,37.2,33.1,30.30,ENE,66,1.0,1.0,85,0.00,,,0.03,Wunderground v.1.15,2013-03-09 02:55:00,
2013-03-08 20:56:00,37.2,33.1,30.30,East,82,1.0,1.0,85,0.00,,,0.03,Wunderground v.1.15,2013-03-09 02:56:00,
2013-03-08 20:57:00,37.2,32.8,30.30,NE,53,1.0,2.0,84,0.00,,,0.03,Wunderground v.1.15,2013-03-09 02:57:00,
2013-03-08 21:02:00,37.3,32.9,30.30,ENE,70,1.0,2.0,84,0.00,,,0.03,Wunderground v.1.15,2013-03-09 03:02:00,
2013-03-08 21:03:00,37.3,32.9,30.30,ESE,114,1.0,2.0,84,0.00,,,0.03,Wunderground v.1.15,2013-03-09 03:03:00,
2013-03-08 21:04:00,37.3,32.9,30.30,East,95,1.0,2.0,84,0.00,,,0.03,Wunderground v.1.15,2013-03-09 03:04:00,
2013-03-08 21:08:00,37.5,33.1,30.30,ESE,108,1.0,7.0,84,0.00,,,0.03,Wunderground v.1.15,2013-03-09 03:08:00,
2013-03-08 21:09:00,37.5,33.1,30.30,East,86,1.0,4.0,84,0.00,,,0.03,Wunderground v.1.15,2013-03-09 03:09:00,
2013-03-08 21:10:00,37.5,33.1,30.30,East,96,1.0,4.0,84,0.00,,,0.03,Wunderground v.1.15,2013-03-09 03:10:00,
2013-03-08 21:15:00,37.5,33.1,30.30,ENE,63,1.0,4.0,84,0.00,,,0.03,Wunderground v.1.15,2013-03-09 03:15:00,
2013-03-08 21:16:00,37.5,33.1,30.30,ENE,66,0.0,4.0,84,0.00,,,0.03,Wunderground v.1.15,2013-03-09 03:16:00,
2013-03-08 21:17:00,37.5,33.1,30.30,ENE,66,1.0,4.0,84,0.00,,,0.03,Wunderground v.1.15,2013-03-09 03:17:00,
2013-03-08 21:22:00,37.5,33.1,30.30,SE,126,0.0,1.0,84,0.00,,,0.03,Wunderground v.1.15,2013-03-09 03:22:00,
2013-03-08 21:23:00,37.5,33.1,30.30,ESE,110,1.0,1.0,84,0.00,,,0.03,Wunderground v.1.15,2013-03-09 03:23:00,
2013-03-08 21:25:00,37.5,33.1,30.30,East,96,1.0,1.0,84,0.00,,,0.03,Wunderground v.1.15,2013-03-09 03:25:00,
2013-03-08 21:27:00,37.5,33.1,30.30,East,99,1.0,1.0,84,0.00,,,0.03,Wunderground v.1.15,2013-03-09 03:27:00,
2013-03-08 21:28:00,37.5,33.1,30.30,East,89,1.0,1.0,84,0.00,,,0.03,Wunderground v.1.15,2013-03-09 03:28:00,
2013-03-08 21:30:00,37.5,33.1,30.29,East,101,1.0,1.0,84,0.00,,,0.03,Wunderground v.1.15,2013-03-09 03:30:00,
2013-03-08 21:32:00,37.5,33.1,30.29,East,95,0.0,1.0,84,0.00,,,0.03,Wunderground v.1.15,2013-03-09 03:32:00,
2013-03-08 21:34:00,37.5,33.1,30.30,ESE,115,0.0,1.0,84,0.00,,,0.03,Wunderground v.1.15,2013-03-09 03:34:00,
2013-03-08 21:35:00,37.5,33.1,30.29,East,91,0.0,1.0,84,0.00,,,0.03,Wunderground v.1.15,2013-03-09 03:35:00,
2013-03-08 21:38:00,37.6,33.2,30.29,ENE,77,0.0,1.0,84,0.00,,,0.03,Wunderground v.1.15,2013-03-09 03:38:00,
2013-03-08 21:40:00,37.6,32.9,30.29,ESE,120,0.0,0.0,83,0.00,,,0.03,Wunderground v.1.15,2013-03-09 03:40:00,
2013-03-08 21:41:00,37.6,32.9,30.30,East,92,0.0,4.0,83,0.00,,,0.03,Wunderground v.1.15,2013-03-09 03:41:00,
2013-03-08 21:43:00,37.6,32.9,30.29,ESE,103,0.0,4.0,83,0.00,,,0.03,Wunderground v.1.15,2013-03-09 03:43:00,
2013-03-08 21:45:00,37.6,32.9,30.29,ENE,77,0.0,4.0,83,0.00,,,0.03,Wunderground v.1.15,2013-03-09 03:45:00,
2013-03-08 21:48:00,37.6,32.9,30.29,ENE,74,0.0,4.0,83,0.00,,,0.03,Wunderground v.1.15,2013-03-09 03:48:00,
2013-03-08 21:51:00,37.6,32.9,30.29,East,98,1.0,1.0,83,0.00,,,0.03,Wunderground v.1.15,2013-03-09 03:51:00,
2013-03-08 21:52:00,37.6,32.9,30.29,ENE,75,0.0,3.0,83,0.00,,,0.03,Wunderground v.1.15,2013-03-09 03:52:00,
2013-03-08 21:55:00,37.5,32.8,30.29,ENE,75,0.0,3.0,83,0.00,,,0.03,Wunderground v.1.15,2013-03-09 03:55:00,
2013-03-08 21:57:00,37.5,32.8,30.29,ENE,66,0.0,3.0,83,0.00,,,0.03,Wunderground v.1.15,2013-03-09 03:57:00,
2013-03-08 21:58:00,37.4,32.7,30.29,ESE,108,0.0,3.0,83,0.00,,,0.03,Wunderground v.1.15,2013-03-09 03:58:00,
2013-03-08 22:00:00,37.4,32.7,30.29,East,85,0.0,0.0,83,0.00,,,0.03,Wunderground v.1.15,2013-03-09 04:00:00,
2013-03-08 22:03:00,37.3,32.6,30.29,East,85,0.0,1.0,83,0.00,,,0.03,Wunderground v.1.15,2013-03-09 04:03:00,
2013-03-08 22:05:00,37.3,32.6,30.29,NE,49,0.0,1.0,83,0.00,,,0.03,Wunderground v.1.15,2013-03-09 04:05:00,
2013-03-08 22:07:00,37.3,32.6,30.28,East,90,0.0,1.0,83,0.00,,,0.03,Wunderground v.1.15,2013-03-09 04:07:00,
2013-03-08 22:08:00,37.3,32.6,30.28,ESE,107,0.0,1.0,83,0.00,,,0.03,Wunderground v.1.15,2013-03-09 04:08:00,
2013-03-08 22:10:00,37.2,32.5,30.28,ESE,103,0.0,0.0,83,0.00,,,0.03,Wunderground v.1.15,2013-03-09 04:10:00,
2013-03-08 22:13:00,37.2,32.5,30.28,ESE,103,0.0,0.0,83,0.00,,,0.03,Wunderground v.1.15,2013-03-09 04:13:00,
2013-03-08 22:14:00,37.1,32.4,30.28,SE,135,0.0,0.0,83,0.00,,,0.03,Wunderground v.1.15,2013-03-09 04:14:00,
2013-03-08 22:15:00,37.1,32.4,30.28,East,88,0.0,0.0,83,0.00,,,0.03,Wunderground v.1.15,2013-03-09 04:15:00,
2013-03-08 22:17:00,37.1,32.4,30.28,SE,136,0.0,0.0,83,0.00,,,0.03,Wunderground v.1.15,2013-03-09 04:17:00,
2013-03-08 22:20:00,37.0,32.3,30.28,ESE,120,0.0,0.0,83,0.00,,,0.03,Wunderground v.1.15,2013-03-09 04:20:00,
2013-03-08 22:21:00,37.0,32.3,30.28,East,85,0.0,0.0,83,0.00,,,0.03,Wunderground v.1.15,2013-03-09 04:21:00,
2013-03-08 22:22:00,37.0,32.3,30.28,East,87,0.0,0.0,83,0.00,,,0.03,Wunderground v.1.15,2013-03-09 04:22:00,
2013-03-08 22:23:00,37.0,32.3,30.28,ESE,114,0.0,1.0,83,0.00,,,0.03,Wunderground v.1.15,2013-03-09 04:23:00,
2013-03-08 22:26:00,37.0,32.3,30.28,ESE,115,0.0,1.0,83,0.00,,,0.03,Wunderground v.1.15,2013-03-09 04:26:00,
2013-03-08 22:29:00,37.0,32.3,30.28,ESE,113,0.0,2.0,83,0.00,,,0.03,Wunderground v.1.15,2013-03-09 04:29:00,
2013-03-08 22:30:00,37.0,32.3,30.28,East,99,0.0,2.0,83,0.00,,,0.03,Wunderground v.1.15,2013-03-09 04:30:00,
2013-03-08 22:31:00,37.0,32.3,30.28,ENE,68,0.0,2.0,83,0.00,,,0.03,Wunderground v.1.15,2013-03-09 04:31:00,
2013-03-08 22:33:00,37.0,32.3,30.28,ENE,60,0.0,2.0,83,0.00,,,0.03,Wunderground v.1.15,2013-03-09 04:33:00,
2013-03-08 22:35:00,36.9,32.2,30.28,ENE,74,1.0,2.0,83,0.00,,,0.03,Wunderground v.1.15,2013-03-09 04:35:00,
2013-03-08 22:36:00,36.9,32.2,30.28,East,89,1.0,2.0,83,0.00,,,0.03,Wunderground v.1.15,2013-03-09 04:36:00,
2013-03-08 22:41:00,36.8,32.1,30.28,ENE,74,1.0,3.0,83,0.00,,,0.03,Wunderground v.1.15,2013-03-09 04:41:00,
2013-03-08 22:42:00,36.8,32.1,30.27,ENE,65,1.0,3.0,83,0.00,,,0.03,Wunderground v.1.15,2013-03-09 04:42:00,
2013-03-08 22:43:00,36.8,32.1,30.27,East,100,1.0,3.0,83,0.00,,,0.03,Wunderground v.1.15,2013-03-09 04:43:00,
2013-03-08 22:45:00,36.7,32.0,30.28,East,83,1.0,3.0,83,0.00,,,0.03,Wunderground v.1.15,2013-03-09 04:45:00,
2013-03-08 22:48:00,36.7,32.0,30.28,East,96,0.0,3.0,83,0.00,,,0.03,Wunderground v.1.15,2013-03-09 04:48:00,
2013-03-08 22:49:00,36.7,32.0,30.28,ESE,107,0.0,0.0,83,0.00,,,0.03,Wunderground v.1.15,2013-03-09 04:49:00,
2013-03-08 22:51:00,36.7,32.0,30.28,ESE,113,0.0,0.0,83,0.00,,,0.03,Wunderground v.1.15,2013-03-09 04:51:00,
2013-03-08 22:56:00,36.9,32.2,30.28,ENE,75,0.0,2.0,83,0.00,,,0.03,Wunderground v.1.15,2013-03-09 04:56:00,
2013-03-08 22:57:00,36.9,32.2,30.28,ESE,108,0.0,2.0,83,0.00,,,0.03,Wunderground v.1.15,2013-03-09 04:57:00,
2013-03-08 22:58:00,36.9,32.2,30.27,ESE,110,0.0,2.0,83,0.00,,,0.03,Wunderground v.1.15,2013-03-09 04:58:00,
2013-03-08 23:00:00,37.0,32.3,30.27,ESE,115,0.0,3.0,83,0.00,,,0.03,Wunderground v.1.15,2013-03-09 05:00:00,
2013-03-08 23:02:00,37.0,32.3,30.27,ESE,116,1.0,3.0,83,0.00,,,0.03,Wunderground v.1.15,2013-03-09 05:02:00,
2013-03-08 23:06:00,37.2,32.2,30.27,East,101,1.0,3.0,82,0.00,,,0.03,Wunderground v.1.15,2013-03-09 05:06:00,
2013-03-08 23:07:00,37.3,32.3,30.27,East,86,1.0,3.0,82,0.00,,,0.03,Wunderground v.1.15,2013-03-09 05:07:00,
2013-03-08 23:08:00,37.3,32.3,30.27,East,79,1.0,3.0,82,0.00,,,0.03,Wunderground v.1.15,2013-03-09 05:08:00,
2013-03-08 23:12:00,37.4,32.1,30.27,ESE,122,2.0,7.0,81,0.00,,,0.03,Wunderground v.1.15,2013-03-09 05:12:00,
2013-03-08 23:14:00,37.4,32.1,30.26,ESE,108,1.0,7.0,81,0.00,,,0.03,Wunderground v.1.15,2013-03-09 05:14:00,
2013-03-08 23:15:00,37.4,32.1,30.26,East,92,1.0,7.0,81,0.00,,,0.03,Wunderground v.1.15,2013-03-09 05:15:00,
2013-03-08 23:16:00,37.4,32.1,30.26,ESE,106,1.0,7.0,81,0.00,,,0.03,Wunderground v.1.15,2013-03-09 05:16:00,
2013-03-08 23:19:00,37.3,32.0,30.26,SE,138,1.0,7.0,81,0.00,,,0.03,Wunderground v.1.15,2013-03-09 05:19:00,
2013-03-08 23:20:00,37.3,32.0,30.26,ENE,66,1.0,1.0,81,0.00,,,0.03,Wunderground v.1.15,2013-03-09 05:20:00,
2013-03-08 23:23:00,37.3,32.0,30.26,East,82,1.0,1.0,81,0.00,,,0.03,Wunderground v.1.15,2013-03-09 05:23:00,
2013-03-08 23:24:00,37.3,32.0,30.26,ESE,110,1.0,4.0,81,0.00,,,0.03,Wunderground v.1.15,2013-03-09 05:24:00,
2013-03-08 23:27:00,37.3,32.0,30.25,ENE,66,1.0,4.0,81,0.00,,,0.03,Wunderground v.1.15,2013-03-09 05:27:00,
2013-03-08 23:28:00,37.3,32.0,30.25,ESE,115,1.0,4.0,81,0.00,,,0.03,Wunderground v.1.15,2013-03-09 05:28:00,
2013-03-08 23:29:00,37.3,32.0,30.25,SE,126,1.0,4.0,81,0.00,,,0.03,Wunderground v.1.15,2013-03-09 05:29:00,
2013-03-08 23:31:00,37.3,32.0,30.25,East,101,1.0,1.0,81,0.00,,,0.03,Wunderground v.1.15,2013-03-09 05:31:00,
2013-03-08 23:32:00,37.2,31.9,30.25,East,79,1.0,1.0,81,0.00,,,0.03,Wunderground v.1.15,2013-03-09 05:32:00,
2013-03-08 23:34:00,37.2,31.9,30.25,East,79,1.0,1.0,81,0.00,,,0.03,Wunderground v.1.15,2013-03-09 05:34:00,
2013-03-08 23:37:00,37.2,32.2,30.25,ESE,106,1.0,1.0,82,0.00,,,0.03,Wunderground v.1.15,2013-03-09 05:37:00,
2013-03-08 23:40:00,37.2,32.2,30.25,East,84,1.0,1.0,82,0.00,,,0.03,Wunderground v.1.15,2013-03-09 05:40:00,
2013-03-08 23:43:00,37.1,32.1,30.25,East,82,1.0,2.0,82,0.00,,,0.03,Wunderground v.1.15,2013-03-09 05:43:00,
2013-03-08 23:45:00,37.2,32.2,30.25,ESE,118,1.0,2.0,82,0.00,,,0.03,Wunderground v.1.15,2013-03-09 05:45:00,
2013-03-08 23:46:00,37.2,32.2,30.25,East,85,1.0,2.0,82,0.00,,,0.03,Wunderground v.1.15,2013-03-09 05:46:00,
2013-03-08 23:48:00,37.2,32.2,30.26,ESE,102,0.0,2.0,82,0.00,,,0.03,Wunderground v.1.15,2013-03-09 05:48:00,
2013-03-08 23:51:00,37.2,31.9,30.26,ESE,106,0.0,1.0,81,0.00,,,0.03,Wunderground v.1.15,2013-03-09 05:51:00,
2013-03-08 23:53:00,37.3,32.0,30.26,ESE,110,1.0,1.0,81,0.00,,,0.03,Wunderground v.1.15,2013-03-09 05:53:00,
2013-03-08 23:55:00,37.4,32.1,30.26,ESE,119,1.0,1.0,81,0.00,,,0.03,Wunderground v.1.15,2013-03-09 05:55:00,
2013-03-08 23:58:00,37.5,32.2,30.26,SE,133,1.0,2.0,81,0.00,,,0.03,Wunderground v.1.15,2013-03-09 05:58:00,
2013-03-08 23:59:00,37.5,32.2,30.26,ESE,116,1.0,2.0,81,0.00,,,0.03,Wunderground v.1.15,2013-03-09 05:59:00,